M I D A S
Marine Information and Data Acquisition System
Tripno 972 of the Zeeleeuw from 2005-10-17 06:25:46 to 2005-10-17 15:25:52
Back to CruiseResearch ActivitiesStationsMapUnderway DataData graphs

EquipmentUnitsComment
TimeDGPSUTC
LatitudeDGPSDM.mWGS84
LongitudeDGPSDM.mWGS84
TemperatureSBE03/SBE38deg celciusITS90
ConductivitySBE21S/mITS90
SalinitySBE21 Practical Salinity Units
ChlorophylAChelsea fluorimeterg/lCalibrated in Aceton
Missing or incorrect values are displayed as -999
Sea surface data collected by the RV Zeeleeuw from 2005-10-17 06:28:52 to 2005-10-17 15:35:43
                                                                                    Next 1000 lines
Time Latitude Longitude Temperature Conductivity Salinity ChlorophylA
2005-10-17 06:29:02 51°13.604 2°56.095 -999 0.076195 0.435423 -1.219471
2005-10-17 06:29:07 51°13.604 2°56.092 -999 0.076195 0.435431 -1.219471
2005-10-17 06:29:12 51°13.605 2°56.088 -999 0.076195 0.435439 -1.219471
2005-10-17 06:29:18 51°13.607 2°56.082 -999 0.076195 0.435439 -1.219471
2005-10-17 06:29:23 51°13.608 2°56.077 -999 0.076195 0.435439 -1.219471
2005-10-17 06:29:28 51°13.61 2°56.072 -999 0.076195 0.435447 -1.219471
2005-10-17 06:29:33 51°13.611 2°56.066 -999 0.076195 0.435447 -1.219471
2005-10-17 06:29:38 51°13.613 2°56.06 -999 0.076195 0.435447 -1.219471
2005-10-17 06:29:43 51°13.615 2°56.054 -999 0.076195 0.435455 -1.219471
2005-10-17 06:29:48 51°13.616 2°56.047 -999 0.076195 0.435455 -1.219471
2005-10-17 06:29:53 51°13.618 2°56.041 -999 0.076195 0.435455 -1.219471
2005-10-17 06:29:58 51°13.62 2°56.034 -999 0.076195 0.435464 -1.219471
2005-10-17 06:30:03 51°13.621 2°56.027 -999 0.076195 0.435464 -1.219471
2005-10-17 06:30:08 51°13.623 2°56.019 -999 0.076195 0.435464 -1.219471
2005-10-17 06:30:12 51°13.625 2°56.013 -999 0.076195 0.435472 -1.219471
2005-10-17 06:30:18 51°13.627 2°56.005 -999 0.076195 0.435472 -1.219471
2005-10-17 06:30:23 51°13.629 2°55.997 -999 0.076195 0.43548 -1.219471
2005-10-17 06:30:28 51°13.631 2°55.99 -999 0.076195 0.435488 -1.219471
2005-10-17 06:30:32 51°13.632 2°55.984 -999 0.076195 0.435488 -1.219471
2005-10-17 06:30:38 51°13.635 2°55.975 -999 0.076195 0.435488 -1.219471
2005-10-17 06:30:43 51°13.637 2°55.967 -999 0.076195 0.435496 -1.185762
2005-10-17 06:30:48 51°13.64 2°55.959 -999 0.076195 0.435496 -1.219471
2005-10-17 06:30:52 51°13.642 2°55.953 -999 0.076195 0.435504 -1.219471
2005-10-17 06:30:58 51°13.645 2°55.943 -999 0.076195 0.435504 -1.219471
2005-10-17 06:31:03 51°13.648 2°55.936 -999 0.076195 0.435504 -1.219471
2005-10-17 06:31:08 51°13.651 2°55.928 -999 0.076195 0.435504 -1.219471
2005-10-17 06:31:12 51°13.653 2°55.922 -999 0.076195 0.435513 -1.219471
2005-10-17 06:31:18 51°13.657 2°55.912 -999 0.076195 0.435521 -1.219471
2005-10-17 06:31:23 51°13.66 2°55.904 -999 0.076195 0.435521 -1.219471
2005-10-17 06:31:28 51°13.663 2°55.896 -999 0.076195 0.435529 -1.219471
2005-10-17 06:31:32 51°13.665 2°55.89 -999 0.076195 0.435529 -1.219471
2005-10-17 06:31:38 51°13.669 2°55.881 -999 0.076195 0.435529 -1.219471
2005-10-17 06:31:43 51°13.672 2°55.872 -999 0.076195 0.435537 -1.219471
2005-10-17 06:31:48 51°13.674 2°55.865 -999 0.076195 0.435537 -1.219471
2005-10-17 06:31:52 51°13.676 2°55.858 -999 0.076195 0.435545 -1.219471
2005-10-17 06:31:58 51°13.679 2°55.848 -999 0.076195 0.435545 -1.219471
2005-10-17 06:32:03 51°13.681 2°55.839 -999 0.076195 0.435545 -1.219471
2005-10-17 06:32:08 51°13.683 2°55.831 -999 0.076195 0.435553 -1.219471
2005-10-17 06:32:12 51°13.685 2°55.824 -999 0.076195 0.435562 -1.219471
2005-10-17 06:32:18 51°13.687 2°55.813 -999 0.076195 0.435562 -1.219471
2005-10-17 06:32:23 51°13.689 2°55.804 -999 0.076195 0.43557 -1.219471
2005-10-17 06:32:28 51°13.691 2°55.796 -999 0.076195 0.43557 -1.219471
2005-10-17 06:32:32 51°13.692 2°55.789 -999 0.076195 0.43557 -1.219471
2005-10-17 06:32:38 51°13.694 2°55.778 -999 0.076195 0.435578 -1.219471
2005-10-17 06:32:43 51°13.695 2°55.77 -999 0.076195 0.435578 -1.219471
2005-10-17 06:32:48 51°13.696 2°55.761 -999 0.076195 0.435586 -1.219471
2005-10-17 06:32:52 51°13.696 2°55.755 -999 0.076195 0.435586 -1.219471
2005-10-17 06:32:58 51°13.697 2°55.746 -999 0.076195 0.435602 -1.219471
2005-10-17 06:33:03 51°13.698 2°55.742 -999 0.076195 0.435602 -1.219471
2005-10-17 06:33:08 51°13.698 2°55.741 -999 0.076195 0.435676 -1.219471
2005-10-17 06:33:13 51°13.699 2°55.74 -999 0.076195 0.435741 -1.219471
2005-10-17 06:33:18 51°13.699 2°55.741 -999 0.076195 0.435774 -1.219471
2005-10-17 06:33:22 51°13.7 2°55.741 -999 0.076195 0.435782 -1.219471
2005-10-17 06:33:28 51°13.701 2°55.743 -999 0.076195 0.435758 -1.219471
2005-10-17 06:33:32 51°13.703 2°55.744 -999 0.076195 0.435758 -1.219471
2005-10-17 06:33:38 51°13.705 2°55.747 -999 0.076195 0.435717 -1.219471
2005-10-17 06:33:42 51°13.707 2°55.748 -999 0.076195 0.435668 -1.219471
2005-10-17 06:33:48 51°13.711 2°55.75 -999 0.076195 0.435619 -1.219471
2005-10-17 06:33:52 51°13.713 2°55.752 -999 0.076195 0.435578 -1.219471
2005-10-17 06:33:58 51°13.716 2°55.753 -999 0.076195 0.435545 -1.219471
2005-10-17 06:34:02 51°13.721 2°55.754 -999 0.076195 0.435545 -1.219471
2005-10-17 06:34:08 51°13.725 2°55.754 -999 0.076195 0.435529 -1.219471
2005-10-17 06:34:12 51°13.729 2°55.754 -999 0.076092 0.434928 -1.219471
2005-10-17 06:34:16 51°13.732 2°55.753 -999 0.076092 0.434952 -1.219471
2005-10-17 06:34:22 51°13.738 2°55.751 -999 0.076092 0.434977 -1.219471
2005-10-17 06:34:28 51°13.743 2°55.748 -999 0.076092 0.435009 -1.219471
2005-10-17 06:34:32 51°13.746 2°55.745 -999 0.076092 0.435009 -1.219471
2005-10-17 06:34:36 51°13.75 2°55.742 -999 0.076195 0.43566 -1.219471
2005-10-17 06:34:42 51°13.755 2°55.735 -999 0.076092 0.435083 -1.219471
2005-10-17 06:34:48 51°13.76 2°55.728 -999 0.076092 0.435107 -1.219471
2005-10-17 06:34:52 51°13.763 2°55.722 -999 0.076092 0.435115 -1.219471
2005-10-17 06:34:58 51°13.769 2°55.712 -999 0.076092 0.435107 -1.219471
2005-10-17 06:35:02 51°13.773 2°55.705 -999 0.076092 0.435107 -1.219471
2005-10-17 06:35:08 51°13.779 2°55.695 -999 0.076092 0.435099 -1.219471
2005-10-17 06:35:12 51°13.784 2°55.687 -999 0.076092 0.435091 -1.219471
2005-10-17 06:35:18 51°13.791 2°55.675 -999 0.076092 0.435074 -1.219471
2005-10-17 06:35:22 51°13.797 2°55.667 -999 0.076092 0.435058 -1.219471
2005-10-17 06:35:27 51°13.804 2°55.658 -999 0.076092 0.43505 -1.219471
2005-10-17 06:35:32 51°13.812 2°55.648 -999 0.076092 0.43505 -1.219471
2005-10-17 06:35:38 51°13.823 2°55.637 -999 0.076092 0.43505 -1.219471
2005-10-17 06:35:43 51°13.832 2°55.627 -999 0.076092 0.43505 -1.219471
2005-10-17 06:35:48 51°13.842 2°55.618 -999 0.076092 0.43505 -1.219471
2005-10-17 06:35:52 51°13.85 2°55.611 -999 0.076092 0.435066 -1.219471
2005-10-17 06:35:58 51°13.863 2°55.601 -999 0.076092 0.435074 -1.219471
2005-10-17 06:36:02 51°13.871 2°55.594 -999 0.076092 0.435074 -1.219471
2005-10-17 06:36:08 51°13.884 2°55.584 -999 0.076092 0.435091 -1.219471
2005-10-17 06:36:12 51°13.893 2°55.578 -999 0.076092 0.435099 -1.219471
2005-10-17 06:36:17 51°13.904 2°55.57 -999 0.076092 0.435115 -1.219471
2005-10-17 06:36:22 51°13.915 2°55.562 -999 0.076092 0.435115 -1.219471
2005-10-17 06:36:28 51°13.929 2°55.553 -999 0.279944 1.715947 -0.74754
2005-10-17 06:36:32 51°13.938 2°55.546 -999 0.279944 1.715947 -0.74754
2005-10-17 06:36:38 51°13.953 2°55.537 -999 0.407257 2.545638 -0.916087
2005-10-17 06:36:42 51°13.962 2°55.53 -999 0.848442 5.562162 -0.444155
2005-10-17 06:36:48 51°13.976 2°55.521 -999 1.500756 10.261831 -0.882377
2005-10-17 06:36:52 51°13.986 2°55.515 -999 1.956294 13.701432 -1.084634
2005-10-17 06:36:57 51°13.998 2°55.506 -999 2.17761 15.502926 -1.253181
2005-10-17 06:37:02 51°14.009 2°55.498 -999 2.17761 15.502926 -1.253181
2005-10-17 06:37:08 51°14.024 2°55.489 -999 2.824895 20.786335 -1.28689
2005-10-17 06:37:12 51°14.034 2°55.482 -999 3.504551 26.611779 -1.28689
2005-10-17 06:37:18 51°14.048 2°55.472 -999 3.681954 28.321182 -1.28689
2005-10-17 06:37:22 51°14.058 2°55.465 -999 3.726603 28.86298 -1.28689
2005-10-17 06:37:28 51°14.073 2°55.455 -999 3.755404 29.22233 -1.253181
2005-10-17 06:37:33 51°14.085 2°55.446 -999 3.755404 29.22233 -1.253181
2005-10-17 06:37:38 51°14.098 2°55.437 -999 3.770427 29.416133 -1.28689
2005-10-17 06:37:42 51°14.108 2°55.429 -999 3.779441 29.552571 -1.28689
2005-10-17 06:37:48 51°14.123 2°55.417 -999 3.796744 29.74833 -1.28689
2005-10-17 06:37:52 51°14.133 2°55.409 -999 3.80234 29.829064 -1.28689
2005-10-17 06:37:58 51°14.148 2°55.396 -999 3.806174 29.889046 -1.28689
2005-10-17 06:38:03 51°14.161 2°55.385 -999 3.806174 29.889046 -1.28689
2005-10-17 06:38:08 51°14.173 2°55.373 -999 3.801822 29.868339 -1.28689
2005-10-17 06:38:13 51°14.185 2°55.361 -999 3.791669 29.7926 -1.28689
2005-10-17 06:38:18 51°14.197 2°55.347 -999 3.787007 29.762962 -1.28689
2005-10-17 06:38:23 51°14.209 2°55.334 -999 3.770431 29.638421 -1.28689
2005-10-17 06:38:28 51°14.22 2°55.319 -999 3.765873 29.615776 -1.28689
2005-10-17 06:38:33 51°14.231 2°55.304 -999 3.765873 29.615776 -1.28689
2005-10-17 06:38:38 51°14.242 2°55.288 -999 3.753855 29.52422 -1.28689
2005-10-17 06:38:43 51°14.253 2°55.271 -999 3.748261 29.489396 -1.28689
2005-10-17 06:38:48 51°14.263 2°55.254 -999 3.742874 29.456974 -1.28689
2005-10-17 06:38:52 51°14.271 2°55.239 -999 3.743185 29.47132 -1.28689
2005-10-17 06:38:58 51°14.282 2°55.217 -999 3.747847 29.523765 -1.28689
2005-10-17 06:39:03 51°14.291 2°55.198 -999 3.747847 29.523765 -1.28689
2005-10-17 06:39:07 51°14.299 2°55.183 -999 3.750334 29.55905 -1.28689
2005-10-17 06:39:12 51°14.308 2°55.164 -999 3.749505 29.563472 -1.28689
2005-10-17 06:39:17 51°14.317 2°55.145 -999 3.742979 29.514273 -1.28689
2005-10-17 06:39:22 51°14.327 2°55.126 -999 3.755929 29.630243 -1.28689
2005-10-17 06:39:28 51°14.338 2°55.103 -999 3.762766 29.697003 -1.28689
2005-10-17 06:39:32 51°14.345 2°55.088 -999 3.762766 29.697003 -1.28689
2005-10-17 06:39:38 51°14.357 2°55.064 -999 3.769501 29.766623 -1.28689
2005-10-17 06:39:42 51°14.364 2°55.048 -999 3.769708 29.775885 -1.28689
2005-10-17 06:39:48 51°14.376 2°55.025 -999 3.776546 29.839041 -1.28689
2005-10-17 06:39:52 51°14.383 2°55.008 -999 3.788564 29.945256 -1.28689
2005-10-17 06:39:57 51°14.393 2°54.988 -999 3.780172 29.87463 -1.28689
2005-10-17 06:40:02 51°14.402 2°54.968 -999 3.780172 29.87463 -1.28689
2005-10-17 06:40:07 51°14.412 2°54.947 -999 3.803794 30.084164 -1.28689
2005-10-17 06:40:12 51°14.421 2°54.926 -999 3.80825 30.120841 -1.28689
2005-10-17 06:40:16 51°14.429 2°54.909 -999 3.814363 30.172732 -1.28689
2005-10-17 06:40:22 51°14.442 2°54.884 -999 3.824724 30.267694 -1.28689
2005-10-17 06:40:28 51°14.455 2°54.86 -999 3.817989 30.213457 -1.28689
2005-10-17 06:40:32 51°14.465 2°54.845 -999 3.817989 30.213457 -1.28689
2005-10-17 06:40:38 51°14.48 2°54.824 -999 3.834879 30.371663 -1.253181
2005-10-17 06:40:43 51°14.494 2°54.807 -999 3.845137 30.481778 -1.28689
2005-10-17 06:40:47 51°14.505 2°54.793 -999 3.844516 30.497946 -1.253181
2005-10-17 06:40:52 51°14.518 2°54.777 -999 3.848453 30.546108 -1.253181
2005-10-17 06:40:56 51°14.53 2°54.764 -999 3.872183 30.758995 -1.253181
2005-10-17 06:41:02 51°14.547 2°54.745 -999 3.872183 30.758995 -1.253181
2005-10-17 06:41:08 51°14.564 2°54.727 -999 3.88638 30.883902 -1.253181
2005-10-17 06:41:12 51°14.576 2°54.716 -999 3.900785 31.010065 -1.253181
2005-10-17 06:41:18 51°14.594 2°54.7 -999 3.91633 31.145741 -1.253181
2005-10-17 06:41:22 51°14.607 2°54.69 -999 3.926486 31.231131 -1.253181
2005-10-17 06:41:28 51°14.625 2°54.675 -999 3.936332 31.313125 -1.253181
2005-10-17 06:41:32 51°14.638 2°54.666 -999 3.936332 31.313125 -1.253181
2005-10-17 06:41:38 51°14.656 2°54.653 -999 3.931668 31.262003 -1.253181
2005-10-17 06:41:42 51°14.669 2°54.644 -999 3.942757 31.354333 -1.253181
2005-10-17 06:41:48 51°14.688 2°54.63 -999 3.954987 31.458748 -1.253181
2005-10-17 06:41:52 51°14.7 2°54.622 -999 3.953121 31.436306 -1.253181
2005-10-17 06:41:56 51°14.713 2°54.614 -999 3.959133 31.484962 -1.219471
2005-10-17 06:42:02 51°14.733 2°54.603 -999 3.959133 31.484962 -1.219471
2005-10-17 06:42:08 51°14.752 2°54.593 -999 3.964937 31.536392 -1.219471
2005-10-17 06:42:12 51°14.765 2°54.588 -999 3.96929 31.574973 -1.219471
2005-10-17 06:42:18 51°14.785 2°54.58 -999 3.97043 31.584419 -1.219471
2005-10-17 06:42:22 51°14.798 2°54.575 -999 3.97157 31.593205 -1.219471
2005-10-17 06:42:28 51°14.818 2°54.567 -999 3.970638 31.582958 -1.253181
2005-10-17 06:42:32 51°14.831 2°54.562 -999 3.970638 31.582958 -1.253181
2005-10-17 06:42:38 51°14.85 2°54.553 -999 3.974991 31.619562 -1.253181
2005-10-17 06:42:42 51°14.863 2°54.547 -999 3.971778 31.591743 -1.253181
2005-10-17 06:42:48 51°14.883 2°54.538 -999 3.982972 31.690977 -1.253181
2005-10-17 06:42:52 51°14.895 2°54.531 -999 3.985563 31.713292 -1.253181
2005-10-17 06:42:58 51°14.915 2°54.52 -999 3.985978 31.713657 -1.253181
2005-10-17 06:43:02 51°14.927 2°54.513 -999 3.985978 31.713657 -1.253181
2005-10-17 06:43:07 51°14.943 2°54.503 -999 3.991575 31.762629 -1.253181
2005-10-17 06:43:12 51°14.959 2°54.493 -999 3.992819 31.772333 -1.28689
2005-10-17 06:43:16 51°14.971 2°54.485 -999 3.99199 31.763653 -1.253181
2005-10-17 06:43:22 51°14.99 2°54.473 -999 3.99199 31.763653 -1.253181
2005-10-17 06:43:28 51°15.008 2°54.46 -999 3.997069 31.810026 -1.28689
2005-10-17 06:43:32 51°15.021 2°54.451 -999 3.997069 31.810026 -1.28689
2005-10-17 06:43:38 51°15.039 2°54.44 -999 3.99655 31.805429 -1.28689
2005-10-17 06:43:43 51°15.055 2°54.432 -999 3.99966 31.834343 -1.28689
2005-10-17 06:43:48 51°15.071 2°54.425 -999 4.001526 31.852226 -1.28689
2005-10-17 06:43:52 51°15.084 2°54.42 -999 4.000904 31.846708 -1.253181
2005-10-17 06:43:58 51°15.103 2°54.414 -999 3.999764 31.836592 -1.253181
2005-10-17 06:44:02 51°15.115 2°54.41 -999 3.999764 31.836592 -1.253181
2005-10-17 06:44:07 51°15.131 2°54.406 -999 4.002562 31.859427 -1.253181
2005-10-17 06:44:12 51°15.147 2°54.402 -999 4.001733 31.84941 -1.253181
2005-10-17 06:44:16 51°15.16 2°54.399 -999 4.000282 31.835871 -1.253181
2005-10-17 06:44:22 51°15.179 2°54.393 -999 4.002666 31.856355 -1.253181
2005-10-17 06:44:28 51°15.198 2°54.387 -999 4.004843 31.877664 -1.253181
2005-10-17 06:44:32 51°15.211 2°54.381 -999 4.004843 31.877664 -1.253181
2005-10-17 06:44:38 51°15.23 2°54.374 -999 3.998623 31.823154 -1.253181
2005-10-17 06:44:42 51°15.243 2°54.368 -999 4.0008 31.844458 -1.253181
2005-10-17 06:44:48 51°15.262 2°54.359 -999 4.000178 31.840936 -1.253181
2005-10-17 06:44:52 51°15.275 2°54.352 -999 3.999142 31.833734 -1.253181
2005-10-17 06:44:58 51°15.294 2°54.34 -999 4.000904 31.850034 -1.253181
2005-10-17 06:45:02 51°15.306 2°54.332 -999 4.000904 31.850034 -1.253181
2005-10-17 06:45:08 51°15.325 2°54.32 -999 3.995099 31.799198 -1.253181
2005-10-17 06:45:12 51°15.337 2°54.312 -999 3.996447 31.811153 -1.253181
2005-10-17 06:45:18 51°15.356 2°54.299 -999 3.996758 31.813912 -1.253181
2005-10-17 06:45:22 51°15.369 2°54.29 -999 3.995203 31.800782 -1.253181
2005-10-17 06:45:27 51°15.384 2°54.28 -999 3.997794 31.823773 -1.253181
2005-10-17 06:45:32 51°15.4 2°54.269 -999 3.997794 31.823773 -1.253181
2005-10-17 06:45:36 51°15.413 2°54.261 -999 3.995514 31.802876 -1.253181
2005-10-17 06:45:42 51°15.432 2°54.249 -999 3.994788 31.79644 -1.253181
2005-10-17 06:45:48 51°15.451 2°54.239 -999 3.994581 31.794601 -1.253181
2005-10-17 06:45:52 51°15.465 2°54.233 -999 3.995825 31.805635 -1.253181
2005-10-17 06:45:56 51°15.478 2°54.229 -999 3.994685 31.794856 -1.253181
2005-10-17 06:46:02 51°15.498 2°54.223 -999 3.994685 31.794856 -1.253181
2005-10-17 06:46:08 51°15.518 2°54.219 -999 3.996032 31.806146 -1.253181
2005-10-17 06:46:12 51°15.531 2°54.216 -999 3.996136 31.805737 -1.253181
2005-10-17 06:46:18 51°15.551 2°54.211 -999 3.996239 31.803335 -1.253181
2005-10-17 06:46:22 51°15.565 2°54.208 -999 3.996032 31.796848 -1.253181
2005-10-17 06:46:28 51°15.585 2°54.203 -999 3.995721 31.791436 -1.253181
2005-10-17 06:46:32 51°15.598 2°54.199 -999 3.995721 31.791436 -1.253181
2005-10-17 06:46:38 51°15.618 2°54.194 -999 3.998934 31.820597 -1.253181
2005-10-17 06:46:42 51°15.632 2°54.19 -999 3.996758 31.803283 -1.253181
2005-10-17 06:46:48 51°15.652 2°54.184 -999 3.994477 31.784387 -1.219471
2005-10-17 06:46:52 51°15.665 2°54.18 -999 3.99738 31.810792 -1.219471
2005-10-17 06:46:56 51°15.679 2°54.177 -999 3.995203 31.793477 -1.219471
2005-10-17 06:47:02 51°15.699 2°54.173 -999 3.995203 31.793477 -1.219471
2005-10-17 06:47:07 51°15.716 2°54.17 -999 3.993544 31.780095 -1.219471
2005-10-17 06:47:12 51°15.732 2°54.167 -999 3.998727 31.827396 -1.219471
2005-10-17 06:47:18 51°15.753 2°54.163 -999 3.997483 31.817691 -1.219471
2005-10-17 06:47:22 51°15.766 2°54.161 -999 3.991679 31.767528 -1.219471
2005-10-17 06:47:27 51°15.782 2°54.157 -999 3.998831 31.830975 -1.219471
2005-10-17 06:47:32 51°15.799 2°54.154 -999 3.998831 31.830975 -1.219471
2005-10-17 06:47:38 51°15.819 2°54.15 -999 3.989398 31.747303 -1.219471
2005-10-17 06:47:42 51°15.832 2°54.148 -999 3.995203 31.799454 -1.219471
2005-10-17 06:47:48 51°15.852 2°54.146 -999 3.997691 31.822188 -1.253181
2005-10-17 06:47:52 51°15.865 2°54.146 -999 4.000178 31.844261 -1.253181
2005-10-17 06:47:56 51°15.878 2°54.147 -999 3.992404 31.776619 -1.253181
2005-10-17 06:48:02 51°15.896 2°54.15 -999 3.992404 31.776619 -1.253181
2005-10-17 06:48:08 51°15.912 2°54.157 -999 4.000178 31.847587 -1.253181
2005-10-17 06:48:12 51°15.922 2°54.161 -999 4.002666 31.870996 -1.253181
2005-10-17 06:48:16 51°15.932 2°54.166 -999 4.003703 31.88286 -1.253181
2005-10-17 06:48:22 51°15.946 2°54.172 -999 4.003703 31.88286 -1.253181
2005-10-17 06:48:28 51°15.96 2°54.178 -999 4.000593 31.852597 -1.28689
2005-10-17 06:48:32 51°15.969 2°54.181 -999 4.000593 31.852597 -1.28689
2005-10-17 06:48:36 51°15.977 2°54.185 -999 4.001008 31.852284 -1.28689
2005-10-17 06:48:42 51°15.99 2°54.19 -999 3.998623 31.825147 -1.28689
2005-10-17 06:48:47 51°16.001 2°54.195 -999 3.996861 31.804867 -1.253181
2005-10-17 06:48:52 51°16.01 2°54.199 -999 3.998416 31.814672 -1.253181
2005-10-17 06:48:56 51°16.018 2°54.203 -999 3.998934 31.813955 -1.253181
2005-10-17 06:49:02 51°16.03 2°54.208 -999 3.998934 31.813955 -1.253181
2005-10-17 06:49:08 51°16.042 2°54.213 -999 3.996135 31.785159 -1.253181
2005-10-17 06:49:12 51°16.05 2°54.216 -999 3.997379 31.793532 -1.253181
2005-10-17 06:49:18 51°16.062 2°54.219 -999 3.995099 31.771329 -1.253181
2005-10-17 06:49:22 51°16.07 2°54.221 -999 3.9923 31.744538 -1.253181
2005-10-17 06:49:27 51°16.08 2°54.222 -999 3.989916 31.723412 -1.253181
2005-10-17 06:49:32 51°16.091 2°54.223 -999 3.989916 31.723412 -1.253181
2005-10-17 06:49:38 51°16.103 2°54.224 -999 3.993751 31.756736 -1.253181
2005-10-17 06:49:42 51°16.111 2°54.225 -999 3.989812 31.72117 -1.219471
2005-10-17 06:49:48 51°16.124 2°54.226 -999 3.990538 31.726937 -1.219471
2005-10-17 06:49:52 51°16.131 2°54.227 -999 3.990538 31.727599 -1.219471
2005-10-17 06:49:56 51°16.139 2°54.228 -999 3.991782 31.739283 -1.219471
2005-10-17 06:50:02 51°16.15 2°54.229 -999 3.991782 31.739283 -1.219471
2005-10-17 06:50:08 51°16.16 2°54.231 -999 3.992196 31.742295 -1.219471
2005-10-17 06:50:12 51°16.166 2°54.233 -999 3.987636 31.701884 -1.219471
2005-10-17 06:50:16 51°16.172 2°54.234 -999 3.991471 31.735203 -1.219471
2005-10-17 06:50:22 51°16.181 2°54.237 -999 3.992196 31.740308 -1.185762
2005-10-17 06:50:27 51°16.187 2°54.24 -999 3.989916 31.719442 -1.185762
2005-10-17 06:50:32 51°16.193 2°54.244 -999 3.989916 31.719442 -1.185762
2005-10-17 06:50:38 51°16.2 2°54.249 -999 3.990227 31.721535 -1.185762
2005-10-17 06:50:42 51°16.204 2°54.252 -999 3.987843 31.700414 -1.185762
2005-10-17 06:50:47 51°16.208 2°54.256 -999 3.992611 31.741996 -1.185762
2005-10-17 06:50:52 51°16.211 2°54.261 -999 3.984008 31.66446 -1.152053
2005-10-17 06:50:57 51°16.215 2°54.265 -999 3.992611 31.739348 -1.185762
2005-10-17 06:51:03 51°16.218 2°54.269 -999 3.992611 31.739348 -1.185762
2005-10-17 06:51:08 51°16.22 2°54.273 -999 3.985666 31.676507 -1.185762
2005-10-17 06:51:12 51°16.222 2°54.275 -999 3.992818 31.737875 -1.152053
2005-10-17 06:51:18 51°16.223 2°54.278 -999 3.992507 31.733796 -1.152053
2005-10-17 06:51:22 51°16.224 2°54.279 -999 3.991574 31.725533 -1.152053
2005-10-17 06:51:28 51°16.225 2°54.28 -999 3.991885 31.728287 -1.152053
2005-10-17 06:51:32 51°16.226 2°54.281 -999 3.991885 31.728287 -1.152053
2005-10-17 06:51:38 51°16.227 2°54.281 -999 3.99116 31.720537 -1.152053
2005-10-17 06:51:42 51°16.228 2°54.281 -999 3.987843 31.689177 -1.152053
2005-10-17 06:51:48 51°16.229 2°54.282 -999 3.989709 31.705701 -1.152053
2005-10-17 06:51:52 51°16.23 2°54.281 -999 3.990538 31.713045 -1.152053
2005-10-17 06:51:56 51°16.231 2°54.281 -999 3.991471 31.720646 -1.152053
2005-10-17 06:52:02 51°16.232 2°54.281 -999 3.991471 31.720646 -1.152053
2005-10-17 06:52:08 51°16.233 2°54.281 -999 3.990123 31.70805 -1.152053
2005-10-17 06:52:12 51°16.233 2°54.28 -999 3.988776 31.695456 -1.152053
2005-10-17 06:52:18 51°16.234 2°54.28 -999 3.991367 31.717744 -1.152053
2005-10-17 06:52:22 51°16.235 2°54.279 -999 3.990641 31.711318 -1.152053
2005-10-17 06:52:28 51°16.236 2°54.278 -999 3.9923 31.724683 -1.152053
2005-10-17 06:52:32 51°16.236 2°54.278 -999 3.9923 31.724683 -1.152053
2005-10-17 06:52:36 51°16.237 2°54.277 -999 3.990227 31.706324 -1.152053
2005-10-17 06:52:42 51°16.237 2°54.276 -999 3.991263 31.715503 -1.152053
2005-10-17 06:52:48 51°16.238 2°54.275 -999 3.990745 31.710914 -1.152053
2005-10-17 06:52:52 51°16.238 2°54.274 -999 3.989501 31.699899 -1.152053
2005-10-17 06:52:58 51°16.239 2°54.273 -999 3.991989 31.719945 -1.152053
2005-10-17 06:53:02 51°16.239 2°54.272 -999 3.991989 31.719945 -1.152053
2005-10-17 06:53:08 51°16.239 2°54.27 -999 3.992196 31.722442 -1.152053
2005-10-17 06:53:12 51°16.239 2°54.27 -999 3.992093 31.720863 -1.152053
2005-10-17 06:53:18 51°16.24 2°54.268 -999 3.989916 31.701588 -1.152053
2005-10-17 06:53:23 51°16.24 2°54.267 -999 3.991263 31.712859 -1.152053
2005-10-17 06:53:28 51°16.24 2°54.266 -999 3.991367 31.713776 -1.152053
2005-10-17 06:53:32 51°16.24 2°54.264 -999 3.991367 31.713776 -1.152053
2005-10-17 06:53:38 51°16.24 2°54.262 -999 3.986081 31.667631 -1.152053
2005-10-17 06:53:42 51°16.24 2°54.261 -999 3.99116 31.711941 -1.152053
2005-10-17 06:53:48 51°16.24 2°54.26 -999 3.991056 31.711023 -1.152053
2005-10-17 06:53:52 51°16.24 2°54.258 -999 3.990538 31.706434 -1.152053
2005-10-17 06:53:58 51°16.24 2°54.256 -999 3.990434 31.705516 -1.152053
2005-10-17 06:54:02 51°16.24 2°54.255 -999 3.990434 31.705516 -1.152053
2005-10-17 06:54:08 51°16.24 2°54.253 -999 3.989398 31.695677 -1.152053
2005-10-17 06:54:12 51°16.239 2°54.252 -999 3.990745 31.708269 -1.152053
2005-10-17 06:54:16 51°16.239 2°54.25 -999 3.989812 31.70067 -1.152053
2005-10-17 06:54:23 51°16.239 2°54.248 -999 3.989812 31.701992 -1.152053
2005-10-17 06:54:28 51°16.238 2°54.246 -999 3.990538 31.709078 -1.152053
2005-10-17 06:54:32 51°16.238 2°54.244 -999 3.990538 31.709078 -1.152053
2005-10-17 06:54:36 51°16.238 2°54.242 -999 3.986703 31.675118 -1.152053
2005-10-17 06:54:43 51°16.238 2°54.239 -999 3.989605 31.700817 -1.152053
2005-10-17 06:54:48 51°16.237 2°54.237 -999 3.988672 31.691895 -1.152053
2005-10-17 06:54:52 51°16.237 2°54.236 -999 3.989294 31.696081 -1.152053
2005-10-17 06:54:56 51°16.236 2°54.234 -999 3.989605 31.698173 -1.152053
2005-10-17 06:55:03 51°16.236 2°54.231 -999 3.989605 31.698173 -1.152053
2005-10-17 06:55:08 51°16.235 2°54.229 -999 3.989087 31.693585 -1.152053
2005-10-17 06:55:12 51°16.235 2°54.227 -999 3.989812 31.70067 -1.152053
2005-10-17 06:55:16 51°16.234 2°54.225 -999 3.989916 31.702249 -1.152053
2005-10-17 06:55:22 51°16.233 2°54.222 -999 3.989501 31.698577 -1.152053
2005-10-17 06:55:28 51°16.232 2°54.22 -999 3.989916 31.702249 -1.152053
2005-10-17 06:55:32 51°16.232 2°54.218 -999 3.989916 31.702249 -1.152053
2005-10-17 06:55:38 51°16.231 2°54.215 -999 3.990538 31.707756 -1.152053
2005-10-17 06:55:42 51°16.231 2°54.213 -999 3.989812 31.701331 -1.152053
2005-10-17 06:55:48 51°16.23 2°54.21 -999 3.990227 31.705002 -1.152053
2005-10-17 06:55:52 51°16.23 2°54.208 -999 3.98919 31.695163 -1.152053
2005-10-17 06:55:56 51°16.229 2°54.206 -999 3.989708 31.699091 -1.152053
2005-10-17 06:56:02 51°16.228 2°54.203 -999 3.989708 31.699091 -1.152053
2005-10-17 06:56:07 51°16.227 2°54.201 -999 3.990434 31.705516 -1.152053
2005-10-17 06:56:12 51°16.227 2°54.198 -999 3.98266 31.63669 -1.152053
2005-10-17 06:56:18 51°16.226 2°54.195 -999 3.986495 31.671302 -1.152053
2005-10-17 06:56:22 51°16.226 2°54.193 -999 3.986081 31.667631 -1.152053
2005-10-17 06:56:27 51°16.225 2°54.19 -999 3.989916 31.700927 -1.152053
2005-10-17 06:56:32 51°16.224 2°54.188 -999 3.989916 31.700927 -1.152053
2005-10-17 06:56:38 51°16.224 2°54.185 -999 3.987532 31.679818 -1.152053
2005-10-17 06:56:42 51°16.223 2°54.182 -999 3.989087 31.693585 -1.152053
2005-10-17 06:56:48 51°16.222 2°54.179 -999 3.986081 31.666971 -1.152053
2005-10-17 06:56:52 51°16.221 2°54.177 -999 3.990227 31.70368 -1.152053
2005-10-17 06:56:56 51°16.221 2°54.175 -999 3.989294 31.694759 -1.152053
2005-10-17 06:57:02 51°16.22 2°54.171 -999 3.989294 31.694759 -1.152053
2005-10-17 06:57:07 51°16.219 2°54.168 -999 3.988983 31.692006 -1.152053
2005-10-17 06:57:12 51°16.218 2°54.165 -999 3.989916 31.700927 -1.152053
2005-10-17 06:57:16 51°16.217 2°54.164 -999 3.989501 31.697256 -1.152053
2005-10-17 06:57:22 51°16.216 2°54.16 -999 3.98577 31.664218 -1.152053
2005-10-17 06:57:28 51°16.215 2°54.156 -999 3.990641 31.706691 -1.152053
2005-10-17 06:57:32 51°16.215 2°54.154 -999 3.990641 31.706691 -1.152053
2005-10-17 06:57:36 51°16.214 2°54.152 -999 3.99033 31.704598 -1.152053
2005-10-17 06:57:42 51°16.212 2°54.149 -999 3.988879 31.691749 -1.152053
2005-10-17 06:57:48 51°16.211 2°54.145 -999 3.989087 31.693585 -1.152053
2005-10-17 06:57:52 51°16.211 2°54.142 -999 3.988983 31.692006 -1.152053
2005-10-17 06:57:56 51°16.21 2°54.14 -999 3.989087 31.692263 -1.152053
2005-10-17 06:58:02 51°16.209 2°54.136 -999 3.989087 31.692263 -1.152053
2005-10-17 06:58:08 51°16.208 2°54.133 -999 3.989397 31.695016 -1.152053
2005-10-17 06:58:12 51°16.207 2°54.13 -999 3.985666 31.66264 -1.152053
2005-10-17 06:58:16 51°16.206 2°54.128 -999 3.98919 31.694502 -1.152053
2005-10-17 06:58:22 51°16.205 2°54.125 -999 3.987739 31.681654 -1.152053
2005-10-17 06:58:28 51°16.203 2°54.121 -999 3.990019 31.701184 -1.152053
2005-10-17 06:58:32 51°16.202 2°54.119 -999 3.990019 31.701184 -1.152053
2005-10-17 06:58:38 51°16.201 2°54.115 -999 3.988257 31.686242 -1.152053
2005-10-17 06:58:42 51°16.2 2°54.113 -999 3.987532 31.679818 -1.152053
2005-10-17 06:58:47 51°16.199 2°54.11 -999 3.989708 31.699091 -1.152053
2005-10-17 06:58:52 51°16.198 2°54.107 -999 3.988776 31.690171 -1.152053
2005-10-17 06:58:58 51°16.197 2°54.103 -999 3.989501 31.696595 -1.152053
2005-10-17 06:59:02 51°16.196 2°54.1 -999 3.989501 31.696595 -1.152053
2005-10-17 06:59:08 51°16.195 2°54.096 -999 3.988257 31.686242 -1.152053
2005-10-17 06:59:12 51°16.194 2°54.094 -999 3.989605 31.698173 -1.152053
2005-10-17 06:59:16 51°16.193 2°54.091 -999 3.989087 31.692924 -1.152053
2005-10-17 06:59:22 51°16.192 2°54.087 -999 3.989087 31.692924 -1.152053
2005-10-17 06:59:28 51°16.191 2°54.084 -999 3.989605 31.697513 -1.152053
2005-10-17 06:59:32 51°16.19 2°54.081 -999 3.989605 31.697513 -1.152053
2005-10-17 06:59:38 51°16.188 2°54.077 -999 3.989605 31.698173 -1.152053
2005-10-17 06:59:42 51°16.188 2°54.075 -999 3.987843 31.682572 -1.152053
2005-10-17 06:59:48 51°16.186 2°54.071 -999 3.989087 31.693585 -1.152053
2005-10-17 06:59:52 51°16.186 2°54.068 -999 3.989398 31.696338 -1.152053
2005-10-17 06:59:56 51°16.185 2°54.065 -999 3.989708 31.699091 -1.152053
2005-10-17 07:00:02 51°16.184 2°54.061 -999 3.989708 31.699091 -1.152053
2005-10-17 07:00:08 51°16.182 2°54.057 -999 3.988465 31.687417 -1.152053
2005-10-17 07:00:12 51°16.181 2°54.054 -999 3.989605 31.696852 -1.152053
2005-10-17 07:00:16 51°16.18 2°54.052 -999 3.988568 31.688335 -1.152053
2005-10-17 07:00:22 51°16.179 2°54.048 -999 3.988776 31.68951 -1.152053
2005-10-17 07:00:28 51°16.178 2°54.044 -999 3.988568 31.687675 -1.152053
2005-10-17 07:00:32 51°16.177 2°54.041 -999 3.988568 31.687675 -1.152053
2005-10-17 07:00:38 51°16.176 2°54.037 -999 3.988776 31.68951 -1.152053
2005-10-17 07:00:42 51°16.175 2°54.034 -999 3.989294 31.694759 -1.152053
2005-10-17 07:00:47 51°16.174 2°54.031 -999 3.990123 31.702102 -1.152053
2005-10-17 07:00:52 51°16.173 2°54.028 -999 3.989087 31.692924 -1.152053
2005-10-17 07:00:58 51°16.171 2°54.024 -999 3.988776 31.690831 -1.152053
2005-10-17 07:01:03 51°16.17 2°54.021 -999 3.988776 31.690831 -1.152053
2005-10-17 07:01:07 51°16.17 2°54.019 -999 3.989398 31.696999 -1.152053
2005-10-17 07:01:12 51°16.169 2°54.016 -999 3.989294 31.696081 -1.152053
2005-10-17 07:01:17 51°16.168 2°54.013 -999 3.986184 31.667889 -1.152053
2005-10-17 07:01:23 51°16.167 2°54.009 -999 3.989294 31.694759 -1.152053
2005-10-17 07:01:28 51°16.167 2°54.006 -999 3.989397 31.695016 -1.152053
2005-10-17 07:01:32 51°16.166 2°54.004 -999 3.989397 31.695016 -1.152053
2005-10-17 07:01:36 51°16.166 2°54.002 -999 3.989397 31.694356 -1.152053
2005-10-17 07:01:43 51°16.165 2°53.998 -999 3.989294 31.692777 -1.152053
2005-10-17 07:01:48 51°16.164 2°53.996 -999 3.988879 31.689107 -1.152053
2005-10-17 07:01:52 51°16.164 2°53.994 -999 3.989812 31.697366 -1.152053
2005-10-17 07:01:58 51°16.163 2°53.992 -999 3.990019 31.698541 -1.152053
2005-10-17 07:02:02 51°16.163 2°53.99 -999 3.990019 31.698541 -1.152053
2005-10-17 07:02:07 51°16.163 2°53.988 -999 3.989294 31.692117 -1.152053
2005-10-17 07:02:12 51°16.162 2°53.986 -999 3.981727 31.625137 -1.152053
2005-10-17 07:02:16 51°16.162 2°53.984 -999 3.988879 31.688446 -1.118343
2005-10-17 07:02:22 51°16.162 2°53.982 -999 3.983386 31.639816 -1.152053
2005-10-17 07:02:27 51°16.161 2°53.98 -999 3.988879 31.689107 -1.152053
2005-10-17 07:02:32 51°16.161 2°53.978 -999 3.988879 31.689107 -1.152053
2005-10-17 07:02:36 51°16.161 2°53.977 -999 3.989916 31.698284 -1.152053
2005-10-17 07:02:42 51°16.16 2°53.975 -999 3.987428 31.675599 -1.152053
2005-10-17 07:02:47 51°16.16 2°53.973 -999 3.989605 31.69487 -1.152053
2005-10-17 07:02:52 51°16.16 2°53.972 -999 3.988983 31.689364 -1.152053
2005-10-17 07:02:58 51°16.16 2°53.97 -999 3.982764 31.634311 -1.152053
2005-10-17 07:03:02 51°16.159 2°53.969 -999 3.982764 31.634311 -1.152053
2005-10-17 07:03:08 51°16.159 2°53.967 -999 3.990227 31.700376 -1.152053
2005-10-17 07:03:12 51°16.159 2°53.966 -999 3.990538 31.704451 -1.152053
2005-10-17 07:03:16 51°16.159 2°53.965 -999 3.985459 31.660145 -1.152053
2005-10-17 07:03:22 51°16.159 2°53.963 -999 3.990019 31.701184 -1.152053
2005-10-17 07:03:28 51°16.158 2°53.962 -999 3.988154 31.685325 -1.152053
2005-10-17 07:03:32 51°16.158 2°53.961 -999 3.988154 31.685325 -1.152053
2005-10-17 07:03:36 51°16.158 2°53.96 -999 3.986184 31.668549 -1.152053
2005-10-17 07:03:42 51°16.158 2°53.959 -999 3.982038 31.631845 -1.185762
2005-10-17 07:03:48 51°16.158 2°53.957 -999 3.987532 31.681139 -1.185762
2005-10-17 07:03:52 51°16.157 2°53.957 -999 3.988879 31.693731 -1.185762
2005-10-17 07:03:56 51°16.157 2°53.956 -999 3.988672 31.691895 -1.185762
2005-10-17 07:04:02 51°16.157 2°53.954 -999 3.988672 31.691895 -1.185762
2005-10-17 07:04:07 51°16.157 2°53.953 -999 3.988672 31.691895 -1.185762
2005-10-17 07:04:12 51°16.157 2°53.952 -999 3.989605 31.700156 -1.185762
2005-10-17 07:04:16 51°16.157 2°53.951 -999 3.986806 31.675375 -1.185762
2005-10-17 07:04:22 51°16.157 2°53.949 -999 3.988465 31.69072 -1.185762
2005-10-17 07:04:28 51°16.156 2°53.947 -999 3.988154 31.687967 -1.185762
2005-10-17 07:04:32 51°16.156 2°53.946 -999 3.988154 31.687967 -1.185762
2005-10-17 07:04:36 51°16.156 2°53.945 -999 3.987843 31.685874 -1.185762
2005-10-17 07:04:42 51°16.156 2°53.943 -999 3.98805 31.68771 -1.185762
2005-10-17 07:04:48 51°16.155 2°53.941 -999 3.988361 31.690463 -1.185762
2005-10-17 07:04:52 51°16.155 2°53.94 -999 3.988568 31.692299 -1.185762
2005-10-17 07:04:56 51°16.154 2°53.938 -999 3.988879 31.695052 -1.185762
2005-10-17 07:05:02 51°16.154 2°53.936 -999 3.988879 31.695052 -1.185762
2005-10-17 07:05:08 51°16.153 2°53.934 -999 3.98577 31.666858 -1.185762
2005-10-17 07:05:12 51°16.153 2°53.932 -999 3.988361 31.689803 -1.185762
2005-10-17 07:05:16 51°16.152 2°53.93 -999 3.988568 31.690978 -1.185762
2005-10-17 07:05:22 51°16.152 2°53.928 -999 3.987325 31.681285 -1.185762
2005-10-17 07:05:28 51°16.151 2°53.925 -999 3.98805 31.68771 -1.185762
2005-10-17 07:05:32 51°16.15 2°53.924 -999 3.98805 31.68771 -1.185762
2005-10-17 07:05:38 51°16.149 2°53.921 -999 3.98919 31.697806 -1.185762
2005-10-17 07:05:43 51°16.149 2°53.919 -999 3.988465 31.69072 -1.185762
2005-10-17 07:05:48 51°16.148 2°53.917 -999 3.987428 31.681542 -1.185762
2005-10-17 07:05:52 51°16.148 2°53.915 -999 3.987117 31.679449 -1.185762
2005-10-17 07:05:58 51°16.147 2°53.912 -999 3.988983 31.696631 -1.185762
2005-10-17 07:06:02 51°16.146 2°53.91 -999 3.988983 31.696631 -1.185762
2005-10-17 07:06:08 51°16.146 2°53.907 -999 3.984008 31.652577 -1.185762
2005-10-17 07:06:12 51°16.145 2°53.905 -999 3.98805 31.689031 -1.185762
2005-10-17 07:06:16 51°16.144 2°53.903 -999 3.988879 31.695713 -1.185762
2005-10-17 07:06:22 51°16.143 2°53.9 -999 3.988361 31.690463 -1.185762
2005-10-17 07:06:28 51°16.142 2°53.897 -999 3.988568 31.692299 -1.185762
2005-10-17 07:06:32 51°16.141 2°53.895 -999 3.988568 31.692299 -1.185762
2005-10-17 07:06:38 51°16.141 2°53.892 -999 3.988361 31.689803 -1.185762
2005-10-17 07:06:42 51°16.14 2°53.89 -999 3.988776 31.693474 -1.185762
2005-10-17 07:06:48 51°16.139 2°53.886 -999 3.98691 31.676953 -1.185762
2005-10-17 07:06:52 51°16.138 2°53.884 -999 3.988776 31.694135 -1.185762
2005-10-17 07:06:56 51°16.137 2°53.882 -999 3.988568 31.69296 -1.185762
2005-10-17 07:07:02 51°16.136 2°53.879 -999 3.988568 31.69296 -1.185762
2005-10-17 07:07:07 51°16.135 2°53.876 -999 3.987117 31.68011 -1.185762
2005-10-17 07:07:12 51°16.134 2°53.873 -999 3.987946 31.686792 -1.185762
2005-10-17 07:07:16 51°16.133 2°53.871 -999 3.988776 31.693474 -1.185762
2005-10-17 07:07:22 51°16.131 2°53.868 -999 3.988361 31.689142 -1.152053
2005-10-17 07:07:28 51°16.13 2°53.865 -999 3.988568 31.690978 -1.185762
2005-10-17 07:07:32 51°16.129 2°53.862 -999 3.988568 31.690978 -1.185762
2005-10-17 07:07:38 51°16.128 2°53.859 -999 3.98691 31.676293 -1.185762
2005-10-17 07:07:42 51°16.127 2°53.856 -999 3.98805 31.685728 -1.185762
2005-10-17 07:07:48 51°16.125 2°53.853 -999 3.985873 31.666456 -1.152053
2005-10-17 07:07:52 51°16.124 2°53.85 -999 3.986392 31.671044 -1.185762
2005-10-17 07:07:56 51°16.124 2°53.849 -999 3.986806 31.674715 -1.152053
2005-10-17 07:08:02 51°16.122 2°53.845 -999 3.986806 31.674715 -1.152053
2005-10-17 07:08:08 51°16.121 2°53.841 -999 3.988568 31.690978 -1.185762
2005-10-17 07:08:12 51°16.12 2°53.839 -999 3.98919 31.696484 -1.185762
2005-10-17 07:08:18 51°16.119 2°53.835 -999 3.98805 31.686389 -1.185762
2005-10-17 07:08:22 51°16.118 2°53.833 -999 3.987221 31.679046 -1.185762
2005-10-17 07:08:28 51°16.116 2°53.829 -999 3.989709 31.701735 -1.185762
2005-10-17 07:08:32 51°16.116 2°53.827 -999 3.989709 31.701735 -1.185762
2005-10-17 07:08:38 51°16.114 2°53.823 -999 3.98805 31.687049 -1.185762
2005-10-17 07:08:43 51°16.113 2°53.82 -999 3.984215 31.653093 -1.185762
2005-10-17 07:08:48 51°16.112 2°53.817 -999 3.988361 31.690463 -1.185762
2005-10-17 07:08:52 51°16.111 2°53.815 -999 3.989398 31.699642 -1.185762
2005-10-17 07:08:56 51°16.11 2°53.812 -999 3.983282 31.645494 -1.185762
2005-10-17 07:09:03 51°16.109 2°53.808 -999 3.983282 31.645494 -1.185762
2005-10-17 07:09:08 51°16.108 2°53.806 -999 3.986806 31.676036 -1.152053
2005-10-17 07:09:12 51°16.108 2°53.805 -999 3.988672 31.693217 -1.185762
2005-10-17 07:09:18 51°16.108 2°53.803 -999 3.988257 31.689545 -1.185762
2005-10-17 07:09:22 51°16.108 2°53.803 -999 3.988361 31.689803 -1.185762
2005-10-17 07:09:28 51°16.109 2°53.802 -999 3.984526 31.656506 -1.185762
2005-10-17 07:09:32 51°16.11 2°53.802 -999 3.984526 31.656506 -1.185762
2005-10-17 07:09:38 51°16.112 2°53.802 -999 3.98919 31.697806 -1.185762
2005-10-17 07:09:42 51°16.114 2°53.801 -999 3.988672 31.693217 -1.152053
2005-10-17 07:09:47 51°16.117 2°53.8 -999 3.98919 31.697806 -1.185762
2005-10-17 07:09:52 51°16.121 2°53.797 -999 3.988672 31.693217 -1.185762
2005-10-17 07:09:58 51°16.125 2°53.793 -999 3.98805 31.68771 -1.152053
2005-10-17 07:10:02 51°16.128 2°53.79 -999 3.98805 31.68771 -1.152053
2005-10-17 07:10:08 51°16.132 2°53.783 -999 3.987843 31.685874 -1.185762
2005-10-17 07:10:12 51°16.135 2°53.777 -999 3.986081 31.670272 -1.185762
2005-10-17 07:10:18 51°16.139 2°53.768 -999 3.988672 31.693878 -1.185762
2005-10-17 07:10:22 51°16.142 2°53.76 -999 3.988154 31.688628 -1.152053
2005-10-17 07:10:28 51°16.145 2°53.748 -999 3.98805 31.68837 -1.152053
2005-10-17 07:10:32 51°16.146 2°53.739 -999 3.98805 31.68837 -1.152053
2005-10-17 07:10:38 51°16.148 2°53.725 -999 3.988568 31.69296 -1.152053
2005-10-17 07:10:43 51°16.148 2°53.713 -999 3.988672 31.694538 -1.152053
2005-10-17 07:10:48 51°16.147 2°53.7 -999 3.98805 31.689031 -1.152053
2005-10-17 07:10:52 51°16.147 2°53.689 -999 3.987221 31.681688 -1.152053
2005-10-17 07:10:56 51°16.146 2°53.677 -999 3.987428 31.683524 -1.152053
2005-10-17 07:11:03 51°16.144 2°53.655 -999 3.987428 31.683524 -1.152053
2005-10-17 07:11:08 51°16.143 2°53.636 -999 3.985666 31.667921 -1.152053
2005-10-17 07:11:12 51°16.143 2°53.62 -999 3.989087 31.697549 -1.152053
2005-10-17 07:11:18 51°16.144 2°53.595 -999 3.987428 31.682863 -1.152053
2005-10-17 07:11:22 51°16.146 2°53.577 -999 3.988465 31.692042 -1.152053
2005-10-17 07:11:28 51°16.147 2°53.55 -999 3.986703 31.677099 -1.152053
2005-10-17 07:11:32 51°16.148 2°53.53 -999 3.986703 31.677099 -1.152053
2005-10-17 07:11:36 51°16.149 2°53.51 -999 3.988776 31.694795 -1.152053
2005-10-17 07:11:42 51°16.15 2°53.48 -999 3.988154 31.688628 -1.152053
2005-10-17 07:11:48 51°16.151 2°53.448 -999 3.989087 31.696227 -1.152053
2005-10-17 07:11:52 51°16.151 2°53.427 -999 3.987843 31.685214 -1.152053
2005-10-17 07:11:58 51°16.152 2°53.394 -999 3.988257 31.689545 -1.152053
2005-10-17 07:12:02 51°16.152 2°53.371 -999 3.988257 31.689545 -1.152053
2005-10-17 07:12:08 51°16.153 2°53.337 -999 3.988154 31.689288 -1.152053
2005-10-17 07:12:12 51°16.153 2°53.313 -999 3.989087 31.697549 -1.152053
2005-10-17 07:12:18 51°16.153 2°53.277 -999 3.988257 31.689545 -1.152053
2005-10-17 07:12:22 51°16.153 2°53.253 -999 3.98919 31.698467 -1.152053
2005-10-17 07:12:28 51°16.153 2°53.217 -999 3.987428 31.682203 -1.185762
2005-10-17 07:12:32 51°16.153 2°53.193 -999 3.987428 31.682203 -1.185762
2005-10-17 07:12:36 51°16.152 2°53.168 -999 3.98691 31.676953 -1.152053
2005-10-17 07:12:42 51°16.152 2°53.131 -999 3.987325 31.681285 -1.185762
2005-10-17 07:12:48 51°16.152 2°53.095 -999 3.985562 31.665683 -1.152053
2005-10-17 07:12:52 51°16.152 2°53.07 -999 3.990123 31.706067 -1.152053
2005-10-17 07:12:58 51°16.153 2°53.034 -999 3.99033 31.707903 -1.185762
2005-10-17 07:13:02 51°16.154 2°53.009 -999 3.99033 31.707903 -1.185762
2005-10-17 07:13:07 51°16.155 2°52.979 -999 3.990434 31.708821 -1.185762
2005-10-17 07:13:12 51°16.156 2°52.949 -999 3.993336 31.735186 -1.185762
2005-10-17 07:13:16 51°16.157 2°52.925 -999 3.99541 31.755534 -1.185762
2005-10-17 07:13:22 51°16.158 2°52.889 -999 3.996757 31.770121 -1.219471
2005-10-17 07:13:28 51°16.16 2°52.852 -999 3.996135 31.767261 -1.219471
2005-10-17 07:13:32 51°16.161 2°52.828 -999 3.996135 31.767261 -1.219471
2005-10-17 07:13:36 51°16.161 2°52.804 -999 3.996446 31.771341 -1.219471
2005-10-17 07:13:42 51°16.163 2°52.767 -999 4.002147 31.821197 -1.219471
2005-10-17 07:13:48 51°16.164 2°52.731 -999 4.004324 31.837169 -1.219471
2005-10-17 07:13:52 51°16.164 2°52.707 -999 4.004013 31.829767 -1.219471
2005-10-17 07:13:56 51°16.165 2°52.683 -999 4.006915 31.850173 -1.219471
2005-10-17 07:14:02 51°16.166 2°52.646 -999 4.006915 31.850173 -1.219471
2005-10-17 07:14:08 51°16.168 2°52.609 -999 4.00733 31.848536 -1.219471
2005-10-17 07:14:12 51°16.169 2°52.585 -999 4.009817 31.865263 -1.219471
2005-10-17 07:14:16 51°16.171 2°52.561 -999 4.010958 31.869386 -1.253181
2005-10-17 07:14:23 51°16.173 2°52.519 -999 4.013031 31.8831 -1.219471
2005-10-17 07:14:28 51°16.175 2°52.488 -999 4.014067 31.888959 -1.253181
2005-10-17 07:14:32 51°16.176 2°52.464 -999 4.014067 31.888959 -1.253181
2005-10-17 07:14:38 51°16.178 2°52.428 -999 4.012512 31.872534 -1.253181
2005-10-17 07:14:42 51°16.179 2°52.404 -999 4.016866 31.909758 -1.253181
2005-10-17 07:14:47 51°16.181 2°52.374 -999 4.017384 31.913684 -1.253181
2005-10-17 07:14:52 51°16.182 2°52.343 -999 4.018213 31.921028 -1.253181
2005-10-17 07:14:58 51°16.184 2°52.307 -999 4.019457 31.931379 -1.253181
2005-10-17 07:15:02 51°16.185 2°52.283 -999 4.019457 31.931379 -1.253181
2005-10-17 07:15:08 51°16.187 2°52.247 -999 4.023915 31.970193 -1.253181
2005-10-17 07:15:12 51°16.188 2°52.223 -999 4.026299 31.989314 -1.253181
2005-10-17 07:15:16 51°16.19 2°52.199 -999 4.028061 32.003592 -1.253181
2005-10-17 07:15:23 51°16.192 2°52.157 -999 4.031482 32.031229 -1.253181
2005-10-17 07:15:28 51°16.194 2°52.127 -999 4.033244 32.045506 -1.253181
2005-10-17 07:15:32 51°16.195 2°52.102 -999 4.033244 32.045506 -1.253181
2005-10-17 07:15:36 51°16.197 2°52.078 -999 4.035525 32.063708 -1.28689
2005-10-17 07:15:42 51°16.199 2°52.043 -999 4.040086 32.102784 -1.253181
2005-10-17 07:15:48 51°16.2 2°52.006 -999 4.042056 32.118899 -1.28689
2005-10-17 07:15:52 51°16.202 2°51.982 -999 4.0433 32.128585 -1.28689
2005-10-17 07:15:56 51°16.203 2°51.958 -999 4.045373 32.144949 -1.28689
2005-10-17 07:16:02 51°16.205 2°51.922 -999 4.045373 32.144949 -1.28689
2005-10-17 07:16:08 51°16.207 2°51.886 -999 4.044647 32.136513 -1.253181
2005-10-17 07:16:12 51°16.208 2°51.862 -999 4.048068 32.165487 -1.253181
2005-10-17 07:16:18 51°16.21 2°51.826 -999 4.050556 32.186194 -1.253181
2005-10-17 07:16:22 51°16.211 2°51.802 -999 4.052007 32.197716 -1.28689
2005-10-17 07:16:27 51°16.212 2°51.772 -999 4.052526 32.200969 -1.28689
2005-10-17 07:16:32 51°16.214 2°51.742 -999 4.052526 32.200969 -1.28689
2005-10-17 07:16:38 51°16.216 2°51.706 -999 4.053459 32.207226 -1.28689
2005-10-17 07:16:42 51°16.217 2°51.682 -999 4.053666 32.207723 -1.28689
2005-10-17 07:16:47 51°16.218 2°51.652 -999 4.055636 32.223166 -1.253181
2005-10-17 07:16:52 51°16.22 2°51.622 -999 4.055739 32.222073 -1.28689
2005-10-17 07:16:56 51°16.221 2°51.598 -999 4.057709 32.237514 -1.28689
2005-10-17 07:17:02 51°16.223 2°51.562 -999 4.057709 32.237514 -1.28689
2005-10-17 07:17:08 51°16.224 2°51.526 -999 4.056258 32.221303 -1.28689
2005-10-17 07:17:12 51°16.225 2°51.502 -999 4.058746 32.239993 -1.253181
2005-10-17 07:17:16 51°16.227 2°51.478 -999 4.058123 32.231801 -1.253181
2005-10-17 07:17:22 51°16.228 2°51.443 -999 4.062581 32.267938 -1.28689
2005-10-17 07:17:28 51°16.23 2°51.407 -999 4.0631 32.269846 -1.253181
2005-10-17 07:17:32 51°16.231 2°51.383 -999 4.0631 32.269846 -1.253181
2005-10-17 07:17:36 51°16.232 2°51.359 -999 4.062788 32.263737 -1.28689
2005-10-17 07:17:42 51°16.235 2°51.324 -999 4.064758 32.2785 -1.253181
2005-10-17 07:17:48 51°16.238 2°51.289 -999 4.065898 32.285916 -1.253181
2005-10-17 07:17:52 51°16.24 2°51.265 -999 4.068594 32.307104 -1.28689
2005-10-17 07:17:56 51°16.242 2°51.242 -999 4.069009 32.308763 -1.28689
2005-10-17 07:18:02 51°16.247 2°51.207 -999 4.069009 32.308763 -1.28689
2005-10-17 07:18:08 51°16.251 2°51.173 -999 4.068905 32.30583 -1.253181
2005-10-17 07:18:12 51°16.254 2°51.15 -999 4.0716 32.327688 -1.28689
2005-10-17 07:18:18 51°16.258 2°51.115 -999 4.07046 32.315574 -1.28689
2005-10-17 07:18:22 51°16.261 2°51.092 -999 4.074296 32.3482 -1.253181
2005-10-17 07:18:28 51°16.265 2°51.057 -999 4.075021 32.352611 -1.253181
2005-10-17 07:18:32 51°16.268 2°51.033 -999 4.075021 32.352611 -1.253181
2005-10-17 07:18:36 51°16.271 2°51.011 -999 4.074814 32.348759 -1.28689
2005-10-17 07:18:42 51°16.275 2°50.976 -999 4.077821 32.374712 -1.28689
2005-10-17 07:18:48 51°16.279 2°50.941 -999 4.079065 32.384385 -1.28689
2005-10-17 07:18:52 51°16.282 2°50.918 -999 4.079583 32.38763 -1.253181
2005-10-17 07:18:58 51°16.287 2°50.884 -999 4.077198 32.365169 -1.253181
2005-10-17 07:19:02 51°16.291 2°50.861 -999 4.077198 32.365169 -1.253181
2005-10-17 07:19:07 51°16.296 2°50.833 -999 4.081449 32.400793 -1.253181
2005-10-17 07:19:12 51°16.301 2°50.805 -999 4.082278 32.406792 -1.253181
2005-10-17 07:19:18 51°16.308 2°50.771 -999 4.083522 32.41579 -1.253181
2005-10-17 07:19:22 51°16.312 2°50.749 -999 4.084559 32.422952 -1.253181
2005-10-17 07:19:28 51°16.318 2°50.715 -999 4.086114 32.435377 -1.253181
2005-10-17 07:19:32 51°16.322 2°50.693 -999 4.086114 32.435377 -1.253181
2005-10-17 07:19:36 51°16.326 2°50.671 -999 4.087669 32.448475 -1.253181
2005-10-17 07:19:43 51°16.335 2°50.633 -999 4.088291 32.452637 -1.253181
2005-10-17 07:19:48 51°16.341 2°50.606 -999 4.087566 32.444862 -1.253181
2005-10-17 07:19:52 51°16.346 2°50.584 -999 4.084248 32.414139 -1.253181
2005-10-17 07:19:58 51°16.354 2°50.552 -999 4.091505 32.477055 -1.253181
2005-10-17 07:20:03 51°16.362 2°50.526 -999 4.091505 32.477055 -1.253181
2005-10-17 07:20:07 51°16.368 2°50.506 -999 4.092542 32.485563 -1.253181
2005-10-17 07:20:12 51°16.376 2°50.481 -999 4.092438 32.48397 -1.253181
2005-10-17 07:20:18 51°16.387 2°50.452 -999 4.093475 32.492477 -1.253181
2005-10-17 07:20:22 51°16.395 2°50.434 -999 4.092335 32.481703 -1.253181
2005-10-17 07:20:28 51°16.406 2°50.405 -999 4.088188 32.442961 -1.253181
2005-10-17 07:20:32 51°16.413 2°50.385 -999 4.088188 32.442961 -1.253181
2005-10-17 07:20:36 51°16.421 2°50.367 -999 4.095238 32.504038 -1.253181
2005-10-17 07:20:42 51°16.433 2°50.338 -999 4.096585 32.5153 -1.253181
2005-10-17 07:20:48 51°16.445 2°50.308 -999 4.098141 32.529073 -1.253181
2005-10-17 07:20:52 51°16.453 2°50.288 -999 4.098037 32.528154 -1.253181
2005-10-17 07:20:56 51°16.46 2°50.268 -999 4.098763 32.533231 -1.253181
2005-10-17 07:21:02 51°16.47 2°50.237 -999 4.098763 32.533231 -1.253181
2005-10-17 07:21:08 51°16.481 2°50.206 -999 4.098141 32.527047 -1.253181
2005-10-17 07:21:12 51°16.487 2°50.184 -999 4.101044 32.552757 -1.253181
2005-10-17 07:21:18 51°16.497 2°50.153 -999 4.101666 32.558267 -1.253181
2005-10-17 07:21:22 51°16.503 2°50.132 -999 4.103428 32.573203 -1.253181
2005-10-17 07:21:27 51°16.51 2°50.106 -999 4.104154 32.578955 -1.253181
2005-10-17 07:21:32 51°16.518 2°50.079 -999 4.104154 32.578955 -1.253181
2005-10-17 07:21:38 51°16.527 2°50.048 -999 4.104569 32.5806 -1.253181
2005-10-17 07:21:42 51°16.534 2°50.027 -999 4.105502 32.586836 -1.253181
2005-10-17 07:21:48 51°16.543 2°49.995 -999 4.106746 32.59718 -1.253181
2005-10-17 07:21:52 51°16.549 2°49.974 -999 4.108301 32.608925 -1.253181
2005-10-17 07:21:56 51°16.556 2°49.953 -999 4.108301 32.606895 -1.253181
2005-10-17 07:22:03 51°16.566 2°49.918 -999 4.108301 32.606895 -1.253181
2005-10-17 07:22:08 51°16.573 2°49.894 -999 4.109338 32.614048 -1.253181
2005-10-17 07:22:12 51°16.578 2°49.876 -999 4.111515 32.631301 -1.253181
2005-10-17 07:22:18 51°16.586 2°49.851 -999 4.112241 32.636375 -1.253181
2005-10-17 07:22:23 51°16.593 2°49.833 -999 4.113174 32.641931 -1.28689
2005-10-17 07:22:27 51°16.599 2°49.82 -999 4.112033 32.629124 -1.253181
2005-10-17 07:22:32 51°16.606 2°49.805 -999 4.112033 32.629124 -1.253181
2005-10-17 07:22:38 51°16.615 2°49.79 -999 4.114418 32.647533 -1.253181
2005-10-17 07:22:42 51°16.621 2°49.783 -999 4.114729 32.646225 -1.28689
2005-10-17 07:22:48 51°16.629 2°49.774 -999 4.114107 32.636656 -1.28689
2005-10-17 07:22:52 51°16.635 2°49.769 -999 4.116595 32.655301 -1.28689
2005-10-17 07:22:56 51°16.64 2°49.765 -999 4.116491 32.650999 -1.28689
2005-10-17 07:23:02 51°16.647 2°49.759 -999 4.116491 32.650999 -1.28689
2005-10-17 07:23:08 51°16.653 2°49.755 -999 4.117528 32.656116 -1.28689
2005-10-17 07:23:12 51°16.658 2°49.754 -999 4.11898 32.665579 -1.28689
2005-10-17 07:23:18 51°16.663 2°49.753 -999 4.118357 32.657366 -1.28689
2005-10-17 07:23:22 51°16.667 2°49.752 -999 4.119291 32.662917 -1.28689
2005-10-17 07:23:28 51°16.672 2°49.754 -999 4.118357 32.651953 -1.28689
2005-10-17 07:23:32 51°16.674 2°49.754 -999 4.118357 32.651953 -1.28689
2005-10-17 07:23:38 51°16.678 2°49.756 -999 4.116076 32.630419 -1.28689
2005-10-17 07:23:42 51°16.68 2°49.758 -999 4.119187 32.656587 -1.28689
2005-10-17 07:23:48 51°16.683 2°49.761 -999 4.119187 32.654557 -1.28689
2005-10-17 07:23:52 51°16.685 2°49.763 -999 4.118046 32.643115 -1.28689
2005-10-17 07:23:56 51°16.686 2°49.765 -999 4.118046 32.641763 -1.28689
2005-10-17 07:24:02 51°16.688 2°49.769 -999 4.118046 32.641763 -1.28689
2005-10-17 07:24:08 51°16.689 2°49.773 -999 4.117009 32.631915 -1.28689
2005-10-17 07:24:12 51°16.689 2°49.776 -999 4.117735 32.638335 -1.28689
2005-10-17 07:24:18 51°16.69 2°49.78 -999 4.117113 32.632157 -1.28689
2005-10-17 07:24:22 51°16.69 2°49.783 -999 4.115143 32.614057 -1.28689
2005-10-17 07:24:28 51°16.69 2°49.788 -999 4.11421 32.605804 -1.28689
2005-10-17 07:24:32 51°16.689 2°49.792 -999 4.11421 32.605804 -1.28689
2005-10-17 07:24:38 51°16.688 2°49.797 -999 4.115143 32.614057 -1.28689
2005-10-17 07:24:43 51°16.687 2°49.801 -999 4.115247 32.614299 -1.28689
2005-10-17 07:24:47 51°16.686 2°49.804 -999 4.113588 32.599627 -1.28689
2005-10-17 07:24:52 51°16.685 2°49.808 -999 4.114625 32.608121 -1.28689
2005-10-17 07:24:58 51°16.683 2°49.812 -999 4.114936 32.611548 -1.28689
2005-10-17 07:25:02 51°16.682 2°49.814 -999 4.114936 32.611548 -1.28689
2005-10-17 07:25:08 51°16.679 2°49.818 -999 4.113277 32.596876 -1.28689
2005-10-17 07:25:12 51°16.678 2°49.819 -999 4.097932 32.461217 -1.28689
2005-10-17 07:25:16 51°16.677 2°49.82 -999 4.112758 32.591617 -1.28689
2005-10-17 07:25:22 51°16.675 2°49.821 -999 4.110581 32.572363 -1.28689
2005-10-17 07:25:28 51°16.673 2°49.822 -999 4.114003 32.60262 -1.28689
2005-10-17 07:25:32 51°16.671 2°49.822 -999 4.114003 32.60262 -1.28689
2005-10-17 07:25:38 51°16.67 2°49.821 -999 4.113795 32.600786 -1.28689
2005-10-17 07:25:42 51°16.668 2°49.82 -999 4.113588 32.598277 -1.28689
2005-10-17 07:25:48 51°16.667 2°49.819 -999 4.113277 32.595526 -1.28689
2005-10-17 07:25:52 51°16.666 2°49.818 -999 4.112344 32.587949 -1.28689
2005-10-17 07:25:58 51°16.664 2°49.817 -999 4.114106 32.604212 -1.28689
2005-10-17 07:26:03 51°16.662 2°49.815 -999 4.114106 32.604212 -1.28689
2005-10-17 07:26:08 51°16.661 2°49.814 -999 4.112447 32.589541 -1.28689
2005-10-17 07:26:12 51°16.66 2°49.813 -999 4.112966 32.593451 -1.28689
2005-10-17 07:26:18 51°16.658 2°49.811 -999 4.112655 32.5907 -1.28689
2005-10-17 07:26:23 51°16.656 2°49.809 -999 4.113277 32.596201 -1.28689
2005-10-17 07:26:28 51°16.655 2°49.808 -999 4.113069 32.594368 -1.28689
2005-10-17 07:26:32 51°16.653 2°49.807 -999 4.113069 32.594368 -1.28689
2005-10-17 07:26:36 51°16.651 2°49.807 -999 4.113069 32.593693 -1.28689
2005-10-17 07:26:43 51°16.648 2°49.805 -999 4.112862 32.591184 -1.28689
2005-10-17 07:26:48 51°16.647 2°49.804 -999 4.113484 32.59736 -1.28689
2005-10-17 07:26:52 51°16.645 2°49.803 -999 4.113691 32.599194 -1.28689
2005-10-17 07:26:56 51°16.644 2°49.802 -999 4.113795 32.600111 -1.28689
2005-10-17 07:27:02 51°16.641 2°49.799 -999 4.113795 32.600111 -1.28689
2005-10-17 07:27:08 51°16.64 2°49.797 -999 4.113899 32.601028 -1.28689
2005-10-17 07:27:12 51°16.639 2°49.794 -999 4.114106 32.602862 -1.253181
2005-10-17 07:27:18 51°16.638 2°49.791 -999 4.111203 32.57719 -1.28689
2005-10-17 07:27:22 51°16.638 2°49.787 -999 4.112966 32.592101 -1.28689
2005-10-17 07:27:28 51°16.639 2°49.783 -999 4.108922 32.555673 -1.28689
2005-10-17 07:27:32 51°16.64 2°49.779 -999 4.108922 32.555673 -1.28689
2005-10-17 07:27:38 51°16.642 2°49.774 -999 4.110685 32.570582 -1.253181
2005-10-17 07:27:43 51°16.644 2°49.77 -999 4.114106 32.601511 -1.28689
2005-10-17 07:27:48 51°16.646 2°49.765 -999 4.113899 32.599678 -1.28689
2005-10-17 07:27:53 51°16.649 2°49.761 -999 4.114417 32.604937 -1.253181
2005-10-17 07:27:58 51°16.651 2°49.757 -999 4.114003 32.600594 -1.253181
2005-10-17 07:28:03 51°16.653 2°49.754 -999 4.114003 32.600594 -1.253181
2005-10-17 07:28:08 51°16.655 2°49.75 -999 4.112344 32.584576 -1.253181
2005-10-17 07:28:12 51°16.656 2°49.747 -999 4.113173 32.591235 -1.253181
2005-10-17 07:28:18 51°16.658 2°49.743 -999 4.109648 32.560067 -1.28689
2005-10-17 07:28:22 51°16.659 2°49.74 -999 4.113277 32.592152 -1.253181
2005-10-17 07:28:28 51°16.66 2°49.736 -999 4.114002 32.598569 -1.253181
2005-10-17 07:28:32 51°16.661 2°49.734 -999 4.114002 32.598569 -1.253181
2005-10-17 07:28:38 51°16.66 2°49.73 -999 4.113484 32.593985 -1.253181
2005-10-17 07:28:43 51°16.658 2°49.727 -999 4.114314 32.60132 -1.28689
2005-10-17 07:28:47 51°16.656 2°49.725 -999 4.111618 32.576809 -1.28689
2005-10-17 07:28:52 51°16.654 2°49.721 -999 4.113899 32.596303 -1.28689
2005-10-17 07:28:58 51°16.65 2°49.716 -999 4.098347 32.458833 -1.28689
2005-10-17 07:29:03 51°16.645 2°49.711 -999 4.098347 32.458833 -1.28689
2005-10-17 07:29:08 51°16.64 2°49.705 -999 4.112862 32.58781 -1.253181
2005-10-17 07:29:12 51°16.636 2°49.7 -999 4.110063 32.563734 -1.253181
2005-10-17 07:29:18 51°16.628 2°49.692 -999 4.112551 32.585735 -1.253181
2005-10-17 07:29:23 51°16.621 2°49.684 -999 4.109648 32.560067 -1.253181
2005-10-17 07:29:28 51°16.614 2°49.676 -999 4.113173 32.591235 -1.28689
2005-10-17 07:29:32 51°16.607 2°49.669 -999 4.113173 32.591235 -1.28689
2005-10-17 07:29:38 51°16.596 2°49.658 -999 4.11338 32.593744 -1.28689
2005-10-17 07:29:42 51°16.587 2°49.649 -999 4.111099 32.5729 -1.253181
2005-10-17 07:29:48 51°16.572 2°49.635 -999 4.112966 32.589402 -1.28689
2005-10-17 07:29:52 51°16.562 2°49.624 -999 4.111825 32.579992 -1.28689
2005-10-17 07:29:56 51°16.551 2°49.614 -999 4.111307 32.575408 -1.28689
2005-10-17 07:30:02 51°16.534 2°49.596 -999 4.111307 32.575408 -1.28689
2005-10-17 07:30:08 51°16.517 2°49.576 -999 4.112136 32.582742 -1.28689
2005-10-17 07:30:12 51°16.505 2°49.562 -999 4.112344 32.584576 -1.253181
2005-10-17 07:30:18 51°16.487 2°49.539 -999 4.112344 32.583226 -1.253181
2005-10-17 07:30:23 51°16.473 2°49.52 -999 4.11141 32.574976 -1.253181
2005-10-17 07:30:27 51°16.461 2°49.503 -999 4.112551 32.583036 -1.253181
2005-10-17 07:30:32 51°16.446 2°49.482 -999 4.112551 32.583036 -1.253181
2005-10-17 07:30:38 51°16.429 2°49.458 -999 4.108093 32.543623 -1.253181
2005-10-17 07:30:43 51°16.414 2°49.437 -999 4.112551 32.583036 -1.253181
2005-10-17 07:30:48 51°16.4 2°49.416 -999 4.109959 32.56012 -1.253181
2005-10-17 07:30:52 51°16.388 2°49.4 -999 4.111203 32.570445 -1.253181
2005-10-17 07:30:58 51°16.37 2°49.374 -999 4.111307 32.571362 -1.28689
2005-10-17 07:31:02 51°16.358 2°49.358 -999 4.111307 32.571362 -1.28689
2005-10-17 07:31:08 51°16.341 2°49.332 -999 4.111929 32.576862 -1.28689
2005-10-17 07:31:12 51°16.329 2°49.316 -999 4.112343 32.579179 -1.253181
2005-10-17 07:31:18 51°16.311 2°49.291 -999 4.112758 32.582171 -1.253181
2005-10-17 07:31:23 51°16.296 2°49.271 -999 4.113484 32.587913 -1.28689
2005-10-17 07:31:28 51°16.281 2°49.249 -999 4.114313 32.595246 -1.253181
2005-10-17 07:31:32 51°16.269 2°49.232 -999 4.114313 32.595246 -1.253181
2005-10-17 07:31:38 51°16.251 2°49.209 -999 4.116076 32.610155 -1.28689
2005-10-17 07:31:43 51°16.236 2°49.188 -999 4.115869 32.608321 -1.28689
2005-10-17 07:31:48 51°16.221 2°49.166 -999 4.120223 32.64615 -1.28689
2005-10-17 07:31:52 51°16.209 2°49.15 -999 4.120431 32.645956 -1.28689
2005-10-17 07:31:58 51°16.192 2°49.125 -999 4.117424 32.617346 -1.253181
2005-10-17 07:32:02 51°16.179 2°49.109 -999 4.117424 32.617346 -1.253181
2005-10-17 07:32:07 51°16.164 2°49.088 -999 4.123126 32.668442 -1.28689
2005-10-17 07:32:12 51°16.149 2°49.068 -999 4.121053 32.650105 -1.253181
2005-10-17 07:32:16 51°16.137 2°49.051 -999 4.122401 32.661348 -1.28689
2005-10-17 07:32:22 51°16.119 2°49.028 -999 4.119394 32.634762 -1.253181
2005-10-17 07:32:28 51°16.1 2°49.002 -999 4.12209 32.657921 -1.28689
2005-10-17 07:32:32 51°16.088 2°48.986 -999 4.12209 32.657921 -1.28689
2005-10-17 07:32:38 51°16.07 2°48.962 -999 4.121986 32.657005 -1.253181
2005-10-17 07:32:42 51°16.058 2°48.945 -999 4.121053 32.648754 -1.253181
2005-10-17 07:32:47 51°16.044 2°48.924 -999 4.123437 32.670516 -1.28689
2005-10-17 07:32:52 51°16.029 2°48.903 -999 4.124993 32.684269 -1.28689
2005-10-17 07:32:58 51°16.011 2°48.878 -999 4.12406 32.676017 -1.28689
2005-10-17 07:33:02 51°15.999 2°48.862 -999 4.12406 32.676017 -1.28689
2005-10-17 07:33:08 51°15.981 2°48.835 -999 4.123437 32.671192 -1.253181
2005-10-17 07:33:12 51°15.969 2°48.819 -999 4.123437 32.671868 -1.253181
2005-10-17 07:33:18 51°15.951 2°48.795 -999 4.126963 32.703722 -1.28689
2005-10-17 07:33:23 51°15.936 2°48.773 -999 4.123852 32.677565 -1.253181
2005-10-17 07:33:27 51°15.924 2°48.756 -999 4.129659 32.729599 -1.253181
2005-10-17 07:33:32 51°15.91 2°48.735 -999 4.129659 32.729599 -1.253181
2005-10-17 07:33:38 51°15.892 2°48.711 -999 4.12997 32.73235 -1.28689
2005-10-17 07:33:43 51°15.877 2°48.689 -999 4.125511 32.69359 -1.28689
2005-10-17 07:33:48 51°15.862 2°48.669 -999 4.129451 32.729119 -1.253181
2005-10-17 07:33:52 51°15.851 2°48.653 -999 4.131421 32.747225 -1.28689
2005-10-17 07:33:56 51°15.839 2°48.637 -999 4.132354 32.75616 -1.28689
2005-10-17 07:34:02 51°15.821 2°48.612 -999 4.132354 32.75616 -1.28689
2005-10-17 07:34:08 51°15.803 2°48.587 -999 4.132562 32.760029 -1.253181
2005-10-17 07:34:12 51°15.792 2°48.571 -999 4.132355 32.758872 -1.253181
2005-10-17 07:34:18 51°15.774 2°48.547 -999 4.132458 32.75979 -1.28689
2005-10-17 07:34:22 51°15.762 2°48.53 -999 4.13588 32.790747 -1.28689
2005-10-17 07:34:28 51°15.744 2°48.505 -999 4.137124 32.803118 -1.28689
2005-10-17 07:34:32 51°15.732 2°48.489 -999 4.137124 32.803118 -1.28689
2005-10-17 07:34:38 51°15.715 2°48.465 -999 4.138783 32.818481 -1.28689
2005-10-17 07:34:42 51°15.703 2°48.448 -999 4.13785 32.8109 -1.28689
2005-10-17 07:34:48 51°15.685 2°48.424 -999 4.138161 32.813654 -1.28689
2005-10-17 07:34:52 51°15.673 2°48.408 -999 4.134636 32.781773 -1.253181
2005-10-17 07:34:58 51°15.656 2°48.382 -999 4.140442 32.832486 -1.253181
2005-10-17 07:35:03 51°15.641 2°48.363 -999 4.140442 32.832486 -1.253181
2005-10-17 07:35:07 51°15.629 2°48.345 -999 4.142101 32.847852 -1.253181
2005-10-17 07:35:12 51°15.614 2°48.325 -999 4.142101 32.848532 -1.253181
2005-10-17 07:35:18 51°15.597 2°48.301 -999 4.142931 32.855876 -1.253181
2005-10-17 07:35:23 51°15.582 2°48.28 -999 4.144693 32.871482 -1.28689
2005-10-17 07:35:28 51°15.567 2°48.259 -999 4.13505 32.786801 -1.28689
2005-10-17 07:35:32 51°15.556 2°48.242 -999 4.13505 32.786801 -1.28689
2005-10-17 07:35:38 51°15.539 2°48.217 -999 4.143657 32.864344 -1.28689
2005-10-17 07:35:42 51°15.527 2°48.201 -999 4.142931 32.86132 -1.28689
2005-10-17 07:35:48 51°15.51 2°48.176 -999 4.146145 32.892509 -1.253181
2005-10-17 07:35:52 51°15.498 2°48.161 -999 4.146871 32.903027 -1.28689
2005-10-17 07:35:58 51°15.48 2°48.136 -999 4.147597 32.912184 -1.28689
2005-10-17 07:36:03 51°15.465 2°48.117 -999 4.147597 32.912184 -1.28689
2005-10-17 07:36:08 51°15.45 2°48.097 -999 4.145834 32.90066 -1.253181
2005-10-17 07:36:12 51°15.438 2°48.082 -999 4.147286 32.918979 -1.28689
2005-10-17 07:36:16 51°15.426 2°48.066 -999 4.144383 32.89939 -1.253181
2005-10-17 07:36:22 51°15.408 2°48.042 -999 4.141894 32.880746 -1.28689
2005-10-17 07:36:28 51°15.391 2°48.019 -999 4.139095 32.860026 -1.253181
2005-10-17 07:36:32 51°15.379 2°48.003 -999 4.139095 32.860026 -1.253181
2005-10-17 07:36:38 51°15.361 2°47.979 -999 4.139302 32.865953 -1.28689
2005-10-17 07:36:42 51°15.35 2°47.963 -999 4.133703 32.818373 -1.253181
2005-10-17 07:36:48 51°15.332 2°47.938 -999 4.141272 32.887508 -1.253181
2005-10-17 07:36:52 51°15.32 2°47.923 -999 4.141272 32.889555 -1.28689
2005-10-17 07:36:58 51°15.302 2°47.9 -999 4.141895 32.896435 -1.28689
2005-10-17 07:37:02 51°15.291 2°47.883 -999 4.141895 32.896435 -1.28689
2005-10-17 07:37:08 51°15.273 2°47.86 -999 4.141272 32.891602 -1.28689
2005-10-17 07:37:12 51°15.261 2°47.844 -999 4.140547 32.885849 -1.28689
2005-10-17 07:37:18 51°15.243 2°47.822 -999 4.140547 32.885849 -1.253181
2005-10-17 07:37:23 51°15.228 2°47.801 -999 4.139821 32.878049 -1.28689
2005-10-17 07:37:28 51°15.213 2°47.782 -999 4.136918 32.852311 -1.253181
2005-10-17 07:37:32 51°15.201 2°47.766 -999 4.136918 32.852311 -1.253181
2005-10-17 07:37:36 51°15.19 2°47.75 -999 4.139302 32.873453 -1.253181
2005-10-17 07:37:43 51°15.169 2°47.724 -999 4.136088 32.844958 -1.253181
2005-10-17 07:37:48 51°15.154 2°47.705 -999 4.138991 32.869331 -1.253181
2005-10-17 07:37:52 51°15.141 2°47.69 -999 4.140028 32.878524 -1.28689
2005-10-17 07:37:58 51°15.124 2°47.665 -999 4.13868 32.867256 -1.28689
2005-10-17 07:38:02 51°15.112 2°47.649 -999 4.13868 32.867256 -1.28689
2005-10-17 07:38:08 51°15.095 2°47.625 -999 4.137643 32.859427 -1.253181
2005-10-17 07:38:12 51°15.083 2°47.61 -999 4.13951 32.875973 -1.253181
2005-10-17 07:38:18 51°15.065 2°47.585 -999 4.138991 32.870695 -1.28689
2005-10-17 07:38:23 51°15.05 2°47.565 -999 4.138058 32.861741 -1.28689
2005-10-17 07:38:28 51°15.035 2°47.546 -999 4.13868 32.867938 -1.28689
2005-10-17 07:38:32 51°15.024 2°47.529 -999 4.13868 32.867938 -1.28689
2005-10-17 07:38:38 51°15.005 2°47.505 -999 4.138058 32.862422 -1.28689
2005-10-17 07:38:42 51°14.994 2°47.489 -999 4.138162 32.863341 -1.253181
2005-10-17 07:38:48 51°14.975 2°47.466 -999 4.137125 32.853468 -1.28689
2005-10-17 07:38:52 51°14.964 2°47.449 -999 4.13671 32.84911 -1.28689
2005-10-17 07:38:58 51°14.946 2°47.425 -999 4.135984 32.843358 -1.28689
2005-10-17 07:39:02 51°14.934 2°47.408 -999 4.135984 32.843358 -1.28689
2005-10-17 07:39:08 51°14.916 2°47.384 -999 4.135362 32.837843 -1.28689
2005-10-17 07:39:12 51°14.904 2°47.368 -999 4.134118 32.826134 -1.253181
2005-10-17 07:39:18 51°14.887 2°47.343 -999 4.133392 32.819701 -1.253181
2005-10-17 07:39:22 51°14.875 2°47.327 -999 4.1336 32.821539 -1.253181
2005-10-17 07:39:27 51°14.86 2°47.306 -999 4.132977 32.816025 -1.28689
2005-10-17 07:39:32 51°14.846 2°47.284 -999 4.132977 32.816025 -1.28689
2005-10-17 07:39:38 51°14.829 2°47.26 -999 4.134325 32.827291 -1.28689
2005-10-17 07:39:42 51°14.817 2°47.243 -999 4.130489 32.792611 -1.253181
2005-10-17 07:39:48 51°14.799 2°47.218 -999 4.132563 32.809627 -1.28689
2005-10-17 07:39:52 51°14.787 2°47.2 -999 4.131837 32.802514 -1.253181
2005-10-17 07:39:58 51°14.77 2°47.176 -999 4.132874 32.811022 -1.253181
2005-10-17 07:40:02 51°14.758 2°47.159 -999 4.132874 32.811022 -1.253181
2005-10-17 07:40:08 51°14.741 2°47.134 -999 4.130489 32.78921 -1.253181
2005-10-17 07:40:12 51°14.729 2°47.118 -999 4.131111 32.794042 -1.253181
2005-10-17 07:40:17 51°14.714 2°47.095 -999 4.130593 32.788089 -1.253181
2005-10-17 07:40:23 51°14.697 2°47.071 -999 4.129659 32.7805 -1.253181
2005-10-17 07:40:28 51°14.682 2°47.051 -999 4.129348 32.778424 -1.253181
2005-10-17 07:40:32 51°14.67 2°47.034 -999 4.129348 32.778424 -1.253181
2005-10-17 07:40:37 51°14.655 2°47.012 -999 4.128415 32.772196 -1.253181
2005-10-17 07:40:43 51°14.638 2°46.988 -999 4.124372 32.738407 -1.253181
2005-10-17 07:40:48 51°14.623 2°46.967 -999 4.124786 32.74344 -1.253181
2005-10-17 07:40:52 51°14.611 2°46.951 -999 4.122713 32.728462 -1.253181
2005-10-17 07:40:56 51°14.6 2°46.934 -999 4.121261 32.718995 -1.253181
2005-10-17 07:41:02 51°14.582 2°46.91 -999 4.121261 32.718995 -1.253181
2005-10-17 07:41:07 51°14.567 2°46.888 -999 4.118773 32.699662 -1.28689
2005-10-17 07:41:12 51°14.553 2°46.868 -999 4.116492 32.683521 -1.253181
2005-10-17 07:41:16 51°14.541 2°46.852 -999 4.113692 32.662106 -1.253181
2005-10-17 07:41:22 51°14.522 2°46.827 -999 4.109234 32.626669 -1.253181
2005-10-17 07:41:28 51°14.505 2°46.801 -999 4.108094 32.621981 -1.253181
2005-10-17 07:41:32 51°14.492 2°46.786 -999 4.108094 32.621981 -1.253181
2005-10-17 07:41:38 51°14.475 2°46.761 -999 4.106124 32.607911 -1.253181
2005-10-17 07:41:43 51°14.46 2°46.74 -999 4.103325 32.587165 -1.253181
2005-10-17 07:41:47 51°14.449 2°46.723 -999 4.101977 32.578604 -1.253181
2005-10-17 07:41:52 51°14.434 2°46.703 -999 4.09897 32.554664 -1.253181
2005-10-17 07:41:58 51°14.416 2°46.677 -999 4.099385 32.560368 -1.253181
2005-10-17 07:42:03 51°14.401 2°46.657 -999 4.099385 32.560368 -1.253181
2005-10-17 07:42:08 51°14.386 2°46.637 -999 4.097 32.54194 -1.253181
2005-10-17 07:42:12 51°14.374 2°46.62 -999 4.095238 32.528347 -1.253181
2005-10-17 07:42:18 51°14.356 2°46.595 -999 4.094409 32.522348 -1.253181
2005-10-17 07:42:23 51°14.342 2°46.575 -999 4.092646 32.508079 -1.253181
2005-10-17 07:42:28 51°14.326 2°46.555 -999 4.092335 32.506673 -1.253181
2005-10-17 07:42:32 51°14.315 2°46.538 -999 4.092335 32.506673 -1.253181
2005-10-17 07:42:38 51°14.297 2°46.514 -999 4.091817 32.50343 -1.253181
2005-10-17 07:42:42 51°14.285 2°46.497 -999 4.090987 32.496079 -1.253181
2005-10-17 07:42:48 51°14.267 2°46.472 -999 4.089225 32.479785 -1.253181
2005-10-17 07:42:52 51°14.256 2°46.455 -999 4.090676 32.493323 -1.253181
2005-10-17 07:42:58 51°14.238 2°46.431 -999 4.090158 32.487379 -1.253181
2005-10-17 07:43:03 51°14.223 2°46.41 -999 4.090158 32.487379 -1.253181
2005-10-17 07:43:08 51°14.208 2°46.392 -999 4.090158 32.486704 -1.253181
2005-10-17 07:43:12 51°14.196 2°46.374 -999 4.089328 32.478004 -1.253181
2005-10-17 07:43:18 51°14.178 2°46.35 -999 4.090365 32.485841 -1.253181
2005-10-17 07:43:22 51°14.166 2°46.334 -999 4.089639 32.478061 -1.253181
2005-10-17 07:43:28 51°14.149 2°46.31 -999 4.089432 32.474875 -1.253181
2005-10-17 07:43:32 51°14.136 2°46.295 -999 4.089432 32.474875 -1.253181
2005-10-17 07:43:38 51°14.119 2°46.27 -999 4.091713 32.493059 -1.253181
2005-10-17 07:43:42 51°14.106 2°46.254 -999 4.090261 32.47885 -1.253181
2005-10-17 07:43:47 51°14.092 2°46.233 -999 4.091506 32.488522 -1.253181
2005-10-17 07:43:52 51°14.077 2°46.213 -999 4.090365 32.477744 -1.253181
2005-10-17 07:43:56 51°14.066 2°46.197 -999 4.090469 32.478663 -1.253181
2005-10-17 07:44:02 51°14.049 2°46.172 -999 4.090469 32.478663 -1.253181
2005-10-17 07:44:08 51°14.031 2°46.149 -999 4.090987 32.483255 -1.253181
2005-10-17 07:44:12 51°14.019 2°46.132 -999 4.091609 32.488766 -1.253181
2005-10-17 07:44:18 51°14.001 2°46.108 -999 4.08995 32.473396 -1.253181
2005-10-17 07:44:22 51°13.988 2°46.093 -999 4.087773 32.454111 -1.253181
2005-10-17 07:44:28 51°13.972 2°46.068 -999 4.088395 32.459621 -1.219471
2005-10-17 07:44:32 51°13.96 2°46.054 -999 4.088395 32.459621 -1.219471
2005-10-17 07:44:38 51°13.942 2°46.028 -999 4.091091 32.483499 -1.219471
2005-10-17 07:44:42 51°13.93 2°46.012 -999 4.088914 32.463538 -1.219471
2005-10-17 07:44:48 51°13.913 2°45.989 -999 4.089432 32.466781 -1.219471
2005-10-17 07:44:52 51°13.901 2°45.974 -999 4.090572 32.475534 -1.219471
2005-10-17 07:44:58 51°13.882 2°45.951 -999 4.091713 32.484287 -1.219471
2005-10-17 07:45:03 51°13.867 2°45.933 -999 4.091713 32.484287 -1.219471
2005-10-17 07:45:08 51°13.852 2°45.914 -999 4.091091 32.478103 -1.219471
2005-10-17 07:45:12 51°13.841 2°45.897 -999 4.089225 32.4609 -1.219471
2005-10-17 07:45:16 51°13.828 2°45.884 -999 4.092957 32.493958 -1.219471
2005-10-17 07:45:22 51°13.811 2°45.859 -999 4.092127 32.485937 -1.219471
2005-10-17 07:45:28 51°13.793 2°45.835 -999 4.095134 32.511894 -1.219471
2005-10-17 07:45:32 51°13.781 2°45.819 -999 4.095134 32.511894 -1.219471
2005-10-17 07:45:38 51°13.764 2°45.795 -999 4.094408 32.50344 -1.219471
2005-10-17 07:45:42 51°13.752 2°45.78 -999 4.095341 32.51103 -1.219471
2005-10-17 07:45:48 51°13.735 2°45.756 -999 4.096067 32.516783 -1.219471
2005-10-17 07:45:52 51°13.723 2°45.741 -999 4.096274 32.519295 -1.219471
2005-10-17 07:45:58 51°13.705 2°45.717 -999 4.094512 32.504359 -1.219471
2005-10-17 07:46:02 51°13.693 2°45.702 -999 4.094512 32.504359 -1.219471
2005-10-17 07:46:08 51°13.675 2°45.678 -999 4.097415 32.530748 -1.219471
2005-10-17 07:46:12 51°13.663 2°45.662 -999 4.096897 32.526831 -1.219471
2005-10-17 07:46:18 51°13.645 2°45.64 -999 4.096689 32.52567 -1.219471
2005-10-17 07:46:22 51°13.633 2°45.624 -999 4.096275 32.521996 -1.219471
2005-10-17 07:46:28 51°13.615 2°45.601 -999 4.09503 32.510975 -1.219471
2005-10-17 07:46:32 51°13.603 2°45.585 -999 4.09503 32.510975 -1.219471
2005-10-17 07:46:38 51°13.584 2°45.562 -999 4.097311 32.52983 -1.219471
2005-10-17 07:46:43 51°13.569 2°45.542 -999 4.095341 32.513055 -1.219471
2005-10-17 07:46:48 51°13.553 2°45.524 -999 4.097104 32.528668 -1.219471
2005-10-17 07:46:52 51°13.541 2°45.507 -999 4.098659 32.542445 -1.219471
2005-10-17 07:46:58 51°13.522 2°45.484 -999 4.098348 32.541041 -1.219471
2005-10-17 07:47:02 51°13.51 2°45.468 -999 4.098348 32.541041 -1.219471
2005-10-17 07:47:08 51°13.492 2°45.445 -999 4.097622 32.534611 -1.219471
2005-10-17 07:47:12 51°13.48 2°45.428 -999 4.099385 32.550902 -1.219471
2005-10-17 07:47:18 51°13.461 2°45.405 -999 4.097519 32.533693 -1.219471
2005-10-17 07:47:22 51°13.449 2°45.389 -999 4.099489 32.550469 -1.219471
2005-10-17 07:47:27 51°13.434 2°45.369 -999 4.099074 32.546795 -1.219471
2005-10-17 07:47:32 51°13.419 2°45.349 -999 4.099074 32.546795 -1.219471
2005-10-17 07:47:38 51°13.401 2°45.326 -999 4.0998 32.553901 -1.219471
2005-10-17 07:47:43 51°13.386 2°45.305 -999 4.097622 32.535287 -1.219471
2005-10-17 07:47:48 51°13.371 2°45.285 -999 4.09897 32.547228 -1.219471
2005-10-17 07:47:52 51°13.359 2°45.27 -999 4.100007 32.555738 -1.219471
2005-10-17 07:47:58 51°13.341 2°45.246 -999 4.0998 32.554577 -1.185762
2005-10-17 07:48:02 51°13.329 2°45.229 -999 4.0998 32.554577 -1.185762
2005-10-17 07:48:08 51°13.311 2°45.206 -999 4.099696 32.552982 -1.219471
2005-10-17 07:48:12 51°13.299 2°45.191 -999 4.099696 32.552306 -1.219471
2005-10-17 07:48:18 51°13.281 2°45.165 -999 4.09586 32.518998 -1.185762
2005-10-17 07:48:23 51°13.266 2°45.146 -999 4.098659 32.543797 -1.185762
2005-10-17 07:48:27 51°13.255 2°45.13 -999 4.101458 32.567246 -1.185762
2005-10-17 07:48:32 51°13.239 2°45.111 -999 4.101458 32.567246 -1.185762
2005-10-17 07:48:38 51°13.222 2°45.086 -999 4.101458 32.567246 -1.185762
2005-10-17 07:48:42 51°13.209 2°45.071 -999 4.101147 32.56449 -1.185762
2005-10-17 07:48:47 51°13.194 2°45.051 -999 4.097726 32.533503 -1.185762
2005-10-17 07:48:52 51°13.18 2°45.031 -999 4.100111 32.555305 -1.185762
2005-10-17 07:48:58 51°13.162 2°45.008 -999 4.099903 32.554143 -1.185762
2005-10-17 07:49:02 51°13.15 2°44.992 -999 4.099903 32.554143 -1.185762
2005-10-17 07:49:07 51°13.135 2°44.971 -999 4.099177 32.547038 -1.185762
2005-10-17 07:49:12 51°13.12 2°44.95 -999 4.097104 32.529344 -1.185762
2005-10-17 07:49:18 51°13.103 2°44.926 -999 4.102495 32.577109 -1.185762
2005-10-17 07:49:22 51°13.091 2°44.91 -999 4.100836 32.563087 -1.185762
2005-10-17 07:49:28 51°13.073 2°44.886 -999 4.103947 32.591324 -1.185762
2005-10-17 07:49:32 51°13.061 2°44.869 -999 4.103947 32.591324 -1.185762
2005-10-17 07:49:38 51°13.043 2°44.845 -999 4.104361 32.595676 -1.185762
2005-10-17 07:49:43 51°13.029 2°44.825 -999 4.104569 32.599545 -1.185762
2005-10-17 07:49:48 51°13.014 2°44.804 -999 4.102806 32.585955 -1.185762
2005-10-17 07:49:52 51°13.002 2°44.789 -999 4.100422 32.565499 -1.185762
2005-10-17 07:49:56 51°12.99 2°44.773 -999 4.102495 32.584552 -1.185762
2005-10-17 07:50:02 51°12.972 2°44.748 -999 4.102495 32.584552 -1.185762
2005-10-17 07:50:07 51°12.957 2°44.728 -999 4.102806 32.589339 -1.185762
2005-10-17 07:50:12 51°12.942 2°44.708 -999 4.09897 32.557369 -1.185762
2005-10-17 07:50:16 51°12.93 2°44.692 -999 4.101666 32.583969 -1.185762
2005-10-17 07:50:22 51°12.913 2°44.666 -999 4.100837 32.578647 -1.185762
2005-10-17 07:50:28 51°12.895 2°44.642 -999 4.102288 32.594223 -1.185762
2005-10-17 07:50:32 51°12.884 2°44.625 -999 4.102288 32.594223 -1.185762
2005-10-17 07:50:36 51°12.872 2°44.608 -999 4.102807 32.600174 -1.185762
2005-10-17 07:50:42 51°12.854 2°44.582 -999 4.101562 32.590498 -1.185762
2005-10-17 07:50:48 51°12.837 2°44.557 -999 4.101251 32.588417 -1.219471
2005-10-17 07:50:52 51°12.825 2°44.539 -999 4.101874 32.59461 -1.185762
2005-10-17 07:50:56 51°12.814 2°44.522 -999 4.100215 32.581933 -1.185762
2005-10-17 07:51:02 51°12.797 2°44.496 -999 4.100215 32.581933 -1.185762
2005-10-17 07:51:08 51°12.779 2°44.471 -999 4.100837 32.589481 -1.185762
2005-10-17 07:51:12 51°12.767 2°44.453 -999 4.103532 32.614064 -1.185762
2005-10-17 07:51:18 51°12.75 2°44.427 -999 4.097312 32.558901 -1.185762
2005-10-17 07:51:22 51°12.738 2°44.41 -999 4.102392 32.605305 -1.185762
2005-10-17 07:51:28 51°12.721 2°44.383 -999 4.102185 32.604822 -1.185762
2005-10-17 07:51:32 51°12.709 2°44.367 -999 4.102185 32.604822 -1.185762
2005-10-17 07:51:38 51°12.692 2°44.341 -999 4.102599 32.609178 -1.185762
2005-10-17 07:51:42 51°12.68 2°44.324 -999 4.104155 32.622972 -1.185762
2005-10-17 07:51:48 51°12.663 2°44.299 -999 4.102392 32.608694 -1.185762
2005-10-17 07:51:52 51°12.651 2°44.283 -999 4.103636 32.621086 -1.219471
2005-10-17 07:51:56 51°12.64 2°44.266 -999 4.107161 32.653716 -1.185762
2005-10-17 07:52:02 51°12.622 2°44.242 -999 4.107161 32.653716 -1.185762
2005-10-17 07:52:08 51°12.605 2°44.216 -999 4.104673 32.632319 -1.219471
2005-10-17 07:52:12 51°12.593 2°44.198 -999 4.106021 32.646312 -1.219471